[[{"header":{"parameterUnit":"m.s-1","parameterCategory":1,"la1":30.6,"la2":29.2853,"lo1":-89.7004,"lo2":-87.6739,"dy":0.0162,"dx":0.0183,"nx":112,"ny":82,"refTime":"2025-01-11T06:00:00:Z","depth":0,"parameterNumber":2,"parameterNumberName":"U-component_of_WINDS"},"data":[0.0,0.0,0.0,0.0,0.0,0.0,0.0,0.0,0.0,0.0,0.0,0.0,0.0,0.0,0.0,0.0,0.0,0.0,0.0,0.0,0.0,0.0,0.0,0.0,0.0,0.0,0.0,0.0,0.0,0.0,0.0,0.0,0.0,0.0,0.0,0.0,0.0,0.0,0.0,0.0,0.0,0.0,0.0,0.0,0.0,0.0,0.0,0.0,0.0,0.0,0.0,0.0,0.0,0.0,0.0,0.0,0.0,0.0,0.0,0.0,0.0,0.0,0.0,0.0,0.0,0.0,0.0,0.0,0.0,0.0,0.0,0.0,0.0,0.0,0.0,0.0,0.0,0.0,0.0,0.0,0.0,0.0,0.0,0.0,0.0,0.0,0.0,0.0,0.0,0.0,0.0,0.0,0.0098,-0.0126,-0.0866,-0.1034,-0.1661,-0.2968,0.0,0.0,0.0,0.0,0.0,0.0,0.0,0.0,0.0,0.0,0.0,0.0,0.0,0.0,0.0,0.0,0.0,0.0,0.0,0.0,0.0,0.0,0.0,0.0,0.0,0.0,0.0,0.0,0.0,0.0,0.0,0.0,0.0,0.0,0.0,0.0,0.0,0.0,0.0,0.0,0.0,0.0,0.0,0.0,0.0,0.0,0.0,0.0,0.0,0.0,0.0,0.0,0.0,0.0,0.0,0.0,0.0,0.0,0.0,0.0,0.0,0.0,0.0,0.0,0.0,0.0,0.0,0.0,0.0,0.0,0.0,0.0,0.0,0.0,0.0,0.0,0.0,0.0,0.0,0.0,0.0,0.0,0.0,0.0,0.0,0.0,0.0,0.0,0.0,0.0,0.0,0.0,0.0,0.0,0.0,0.0,0.0,0.0,0.0,0.0,0.0,0.0,0.0,0.0,0.0,0.0,0.056,0.0629,-0.0098,-0.0741,-0.1202,-0.1438,0.0,0.0,0.0,0.0,0.0,0.0,0.0,0.0,0.0,0.0,0.0,0.0,0.0,0.0,0.0,0.0,0.0,0.0,0.0,0.0,0.0,0.0,0.0,0.0,0.0,0.0,0.0,0.0,0.0,0.0,0.0,0.0,0.0,0.0,0.0,0.0,0.0,0.0,0.0,0.0,0.0,0.0,0.0,0.0,0.0,0.0,0.0,0.0,0.0,0.0,0.0,0.0,0.0,0.0,0.0,0.0,0.0,0.0,0.0,0.0,0.0,0.0,0.0,0.0,0.0,0.0,0.0,0.0,0.0,0.0,0.0,0.0,0.0,0.0,0.0,0.0,0.0,0.0,0.0,0.0,0.0,0.0,0.0,0.0,0.0,0.0,0.0,0.0,0.0,0.0,0.0,0.0,0.0,0.0,0.0,0.0,0.0,0.0,0.0,0.0,0.0,0.0,0.0,0.0602,0.0602,0.0602,0.0546,0.0364,0.0028,-0.0308,-0.0671,-0.1076,-0.173,0.0,0.0,0.0,0.0,0.0,0.0,0.0,0.0,0.0,0.0,0.0,0.0,0.0,0.0,0.0,0.0,0.0,0.0,0.0,0.0,0.0,0.0,0.0,0.0,0.0,0.0,0.0,0.0,0.0,0.0,0.0,0.0,0.0,0.0,0.0,0.0,0.0,0.0,0.0,0.0,0.0,0.0,0.0,0.0,0.0,0.0,0.0,0.0,0.0,0.0,0.0,0.0,0.0,0.0,0.0,0.0,0.0,0.0,0.0,0.0,0.0,0.0,0.0,0.0,0.0,0.0,0.0,0.0,0.0,0.0,0.0,0.0,0.0,0.0,0.0,0.0,0.0,0.0,0.0,0.0,0.0,0.0,0.0,0.0,0.0,0.0,0.0,0.0,0.0,0.0,0.0,0.0,0.0,0.0,0.0,0.0,0.0,0.0,0.0,0.0,0.0,0.0,0.1424,0.1507,0.1146,0.0755,0.0378,0.0028,0.0,-0.0238,-0.0811,-0.0838,0.0,0.0,0.0,0.0,0.0,0.0,0.0,0.0,0.0,0.0,0.0,0.0,0.0,0.0,0.0,0.0,0.0,0.0,0.0,0.0,0.0,0.0,0.0,0.0,0.0,0.0,0.0,0.0,0.0,0.0,0.0,0.0,0.0,0.0,0.0,0.0,0.0,0.0,0.0,0.0,0.0,0.0,0.0,0.0,0.0,0.0,0.0,0.0,0.0,0.0,0.0,0.0,0.0,0.0,0.0,0.0,0.0,0.0,0.0,0.0,0.0,0.0,0.0,0.0,0.0,0.0,0.0,0.0,0.0,0.0,0.0,0.0,0.0,0.0,0.0,0.0,0.0,0.0,0.0,0.0,0.0,0.0,0.0,0.0,0.0,0.0,0.0,0.0,0.0,0.0,0.0,0.0,0.0,0.0,0.0,0.0,0.0,0.0,0.0,0.0,0.0,0.0,0.2357,0.269,0.1257,0.1661,0.1493,0.0112,0.0,-0.0028,-0.007,-0.0084,0.0,0.0,0.0,0.0,0.0,0.0,0.0,0.0,0.0,0.0,0.0,0.0,0.0,0.0,0.0,0.0,0.0,0.0,0.0,0.0,0.0,0.0,0.0,0.0,0.0,0.0,0.0,0.0,0.0,0.0,0.0,0.0,0.0,0.0,0.0,0.0,0.0,0.0,0.0,0.0,0.0,0.0,0.0,0.0,0.0,0.0,0.0,0.0,0.0,0.0,0.0,0.0,0.0,0.0,0.0,0.0,0.0,0.0,0.0,0.0,0.0,0.0,0.0,0.0,0.0,0.0,0.0,0.0,0.0,0.0,0.0,0.0,0.0,0.0,0.0,0.0,0.0,0.0,0.0,0.0,0.0,0.0,0.0,0.0,0.0,0.0,0.0,0.0,0.0,0.0,0.0,0.0,0.0,0.0,0.0,0.0,0.0,0.0,0.0,0.0,0.0,0.0,0.269,0.294,0.0,0.1619,0.1104,0.0084,0.0,0.0,0.0,0.0,0.0,0.0,0.0,0.0,0.0,0.0,0.0,0.0,0.0,0.0,0.0,0.0,0.0,0.0,0.0,0.0,0.0,0.0,0.0,0.0,0.0,0.0,0.0,0.0,0.0,0.0,0.0,0.0,0.0,0.0,0.0,0.0,0.0,0.0,0.0,0.0,0.0,0.0,0.0,0.0,0.0,0.0,0.0,0.0,0.0,0.0,0.0,0.0,0.0,0.0,0.0,0.0,0.0,0.0,0.0,0.0,0.0,0.0,0.0,0.0,0.0,0.0,0.0,0.0,0.0,0.0,0.0,0.0,0.0,0.0,0.0,0.0,0.0,0.0,0.0,0.0,0.0,0.0,0.0,0.0,0.0,0.0,0.0,0.0,0.0,0.0,0.0,0.0,0.0,0.0,0.0,0.0,0.0,0.0,0.0,0.0,0.0,0.0,0.0,0.0,0.0,0.2522,0.3218,0.3386,0.0,0.1884,0.1146,0.0406,0.014,0.0,0.0,0.0,0.0,0.0,0.0,0.0,0.0,0.0,0.0,0.0,0.0,0.0,0.0,0.0,0.0,0.0,0.0,0.0,0.0,0.0,0.0,0.0,0.0,0.0,0.0,0.0,0.0,0.0,0.0,0.0,0.0,0.0,0.0,0.0,0.0,0.0,0.0,0.0,0.0,0.0,0.0,0.0,0.0,0.0,0.0,0.0,0.0,0.0,0.0,0.0,0.0,0.0,0.0,0.0,0.0,0.0,0.0,0.0,0.0,0.0,0.0,0.0,0.0,0.0,0.0,0.0,0.0,0.0,0.0,0.0,0.0,0.0,0.0,0.0,0.0,0.0,0.0,0.0,0.0,0.0,0.0,0.0,0.0,0.0,0.0,0.0,0.0,0.0,0.0,0.0,0.0,0.0,0.0,0.0,0.0,0.0,0.0,0.0,0.0,0.0,0.0,0.0,0.0,0.3206,0.4004,0.4201,0.3389,0.2649,0.1912,0.116,0.0434,0.0014,0.0,0.0,0.0,0.0,0.0,0.0,0.0,0.0,0.0,0.0,0.0,0.0,0.0,0.0,0.0,0.0,0.0,0.0,0.0,0.0,0.0,0.0,0.0,0.0,0.0,0.0,0.0,0.0,0.0,0.0,0.0,0.0,0.0,0.0,0.0,0.0,0.0,0.0,0.0,0.0,0.0,0.0,0.0,0.0,0.0,0.0,0.0,0.0,0.0,0.0,0.0,0.0,0.0,0.0,0.0,0.0,0.0,0.0,0.0,0.0,0.0,0.0,0.0,0.0,0.0,0.0,0.0,0.0,0.0,0.0,0.0,0.0,0.0,0.0,0.0,0.0,0.0,0.0,0.0,0.0,0.0,0.0,0.0,0.0,0.0,0.0,0.0,0.0,0.0,0.0,0.0,0.0,0.0,0.0,0.0,0.0,0.0,0.0,0.0,0.0,0.0,0.0,0.0,0.0,0.4258,0.4459,0.3604,0.3321,0.2618,0.1217,0.0895,0.056,0.0028,0.0,0.0,0.0,0.0,0.0,0.0,0.0,0.0,0.0,0.0,0.0,0.0,0.0,0.0,0.0,0.0,0.0,0.0,0.0,0.0,0.0,0.0,0.0,0.0,0.0,0.0,0.0,0.0,0.0,0.0,0.0,0.0,0.0,0.0,0.0,0.0,0.0,0.0,0.0,0.0,0.0,0.0,0.0,0.0,0.0,0.0,0.0,0.0,0.0,0.0,0.0,0.0,0.0,0.0,0.0,0.0,0.0,0.0,0.0,0.0,0.0,0.0,0.0,0.0,0.0,0.0,0.0,0.0,0.0,0.0,0.0,0.0,0.0,0.0,0.0,0.0,0.0,0.0,0.0,0.0,0.0,0.0,0.0,0.0,0.0,0.0,0.0,0.0,0.0,0.0,0.0,0.0,0.0,0.0,0.0,0.0,0.0,0.0,0.0,0.0,0.0,0.0,0.3911,0.4539,0.4676,0.4103,0.378,0.3165,0.2069,0.1438,0.0909,0.0462,0.0,0.0,0.0,0.0,0.0,0.0,0.0,0.0,0.0,0.0,0.0,0.0,0.0,0.0,0.0,0.0,0.0,0.0,0.0,0.0,0.0,0.0,0.0,0.0,0.0,0.0,0.0,0.0,0.0,0.0,0.0,0.0,0.0,0.0,0.0,0.0,0.0,0.0,0.0,0.0,0.0,0.0,0.0,0.0,0.0,0.0,0.0,0.0,0.0,0.0,0.0,0.0,0.0,0.0,0.0,0.0,0.0,0.0,0.0,0.0,0.0,0.0,0.0,0.0,0.0,0.0,0.0,0.0,0.0,0.0,0.0,0.0,0.0,0.0,0.0,0.0,0.0,0.0,0.0,0.0,0.0,0.0,0.0,0.0,0.0,0.0,0.0,0.0,0.0,0.0,0.0,0.0,0.0,0.0,0.0,0.0,0.0,0.0,0.0,0.0,0.0,0.0,0.4536,0.4857,0.4882,0.4728,0.4121,0.3612,0.3327,0.2077,0.127,0.1202,0.0,0.0,0.0,0.0,0.0,0.0,0.0,0.0,0.0,0.0,0.0,0.0,0.0,0.0,0.0,0.0,0.0,0.0,0.0,0.0,0.0,0.0,0.0,0.0,0.0,0.0,0.0,0.0,0.0,0.0,0.0,0.0,0.0,0.0,0.0,0.0,0.0,0.0,0.0,0.0,0.0,0.0,0.0,0.0,0.0,0.0,0.0,0.0,0.0,0.0,0.0,0.0,0.0,0.0,0.0,0.0,0.0,0.0,0.0,0.0,-0.1703,0.0,0.0,0.0,0.0,0.0,0.0,0.0,0.0,0.0,0.0,0.0,0.0,0.0,0.0,0.0,0.0,0.0,0.0,0.0,0.0,0.0,0.0,0.0,0.0,0.0,0.0,0.0,0.0,0.0,0.0,0.0,0.0,0.0,0.0,0.0,0.0,0.0,0.0,0.0,0.0,0.0,0.4746,0.512,0.5181,0.4882,0.472,0.4266,0.3377,0.301,0.2579,0.2009,0.0,0.0,0.0,0.0,0.0,0.0,0.0,0.0,0.0,0.0,0.0,0.0,0.0,0.0,0.0,0.0,0.0,0.0,0.0,0.0,0.0,0.0,0.0,0.0,0.0,0.0,0.0,0.0,0.0,0.0,0.0,0.0,0.0,0.0,0.0,0.0,0.0,0.0,0.0,0.0,0.0,0.0,0.0,0.0,0.0,0.0,0.0,0.0,0.0,0.0,0.0,0.0,0.0,0.0,0.0,0.0,0.0,0.0,0.0,0.0,0.0,-0.1151,0.0,0.0,0.0,0.0,0.0,0.0,0.0,0.0,0.0,0.0,0.0,0.0,0.0,0.0,0.0,0.0,0.0,0.0,0.0,0.0,0.0,0.0,0.0,0.0,0.0,0.0,0.0,0.0,0.0,0.0,0.0,0.0,0.0,0.0,0.0,0.0,0.0,0.0,0.0,0.0,0.4811,0.5195,0.529,0.5028,0.4943,0.4644,0.4031,0.3557,0.3148,0.2801,0.2417,0.0,0.0,0.0,0.0,0.0,0.0,0.0,0.0,0.0,0.0,0.0,0.0,0.0,0.0,0.0,0.0,0.0,0.0,0.0,0.0,0.0,0.0,0.0,0.0,0.0,0.0,0.0,0.0,0.0,0.0,0.0,0.0,0.0,0.0,0.0,0.0,0.0,0.0,0.0,0.0,0.0,0.0,0.0,0.0,0.0,0.0,0.0,0.0,0.0,0.0,0.0,0.0,0.0,0.0,0.0,0.0,0.0,0.0,0.0,0.0,0.0,0.0,0.0,0.0,0.0,0.0,0.0,0.0,0.0,0.0,0.0,0.0,0.0,0.0,0.0,0.0,0.0,0.0,0.0,0.0,0.0,0.0,0.0,0.0,0.0,0.0,0.0,0.1211,0.1865,0.0,0.0,0.0,0.0,0.0,0.0,0.0,0.0,0.0,0.0,0.0,0.0,0.4863,0.5209,0.5321,0.5113,0.4972,0.4842,0.4719,0.3964,0.3539,0.358,0.2972,0.2819,0.0,0.0,0.0,0.0,0.0,0.0,0.0,0.0,0.0,0.0,0.0,0.0,0.0,0.0,0.0,0.0,0.0,0.0,0.0,0.0,0.0,0.0,0.0,0.0,0.0,0.0,0.0,0.0,0.0,0.0,0.0,0.0,-0.4926,-0.5056,0.0,0.0,0.0,0.0,0.0,0.0,0.0,0.0,0.0,0.0,0.0,0.0,0.0,0.0,-0.0143,-0.0054,0.0,0.0,0.0,0.0,0.0,0.0,0.0,0.0,0.0,0.0,0.0,0.0,0.0,0.0,0.0,0.0,0.0,0.0,0.0,0.0,0.0,0.0,0.0,0.0,0.0,0.0,0.0,0.0,0.0,0.0,0.0,0.0,0.0,0.0,0.1601,0.249,0.2805,0.3115,0.0,0.3368,0.2752,0.2827,0.0,0.0,0.0,0.0,0.0,0.0,0.0,0.0,0.5054,0.527,0.5321,0.5113,0.4972,0.4842,0.4719,0.4478,0.4349,0.4349,0.4261,0.4237,0.4306,0.4068,0.0,0.0,0.0,0.0,0.0,0.0,0.0,0.0,0.0,0.0,0.0,0.0,0.0,0.0,0.0,0.0,0.0,0.0,0.0,0.0,0.0,0.0,0.0,0.0,0.0,0.0,0.0,0.0,0.0,-0.507,-0.5209,-0.527,-0.5352,-0.5376,0.0,0.0,0.0,0.0,0.0,0.0,0.0,0.0,0.0,0.0,0.0,0.0,0.0,0.0,0.0,0.0,0.0,0.0,0.0,0.0,0.0,0.0,0.0,0.0,0.0,0.0,0.0,0.0,0.0,0.0,0.0,0.0,0.0,0.0,0.0,0.0,0.0,0.0,0.0,0.0,0.0,0.0,0.0,0.0,0.0,0.0,0.0,0.0,0.0,0.2154,0.3149,0.4105,0.4519,0.4628,0.459,0.0,0.4101,0.3867,0.4016,0.0,0.0,0.0,0.0,0.0,0.527,0.5413,0.5447,0.5294,0.5112,0.4994,0.493,0.4739,0.4617,0.4617,0.4539,0.4505,0.4505,0.4416,0.4368,0.0,0.0,0.0,0.0,0.0,0.0,0.0,0.0,0.0,0.0,0.0,0.0,0.0,0.0,0.0,0.0,0.0,0.0,0.0,0.0,0.0,0.0,0.0,0.0,0.0,0.0,0.0,0.0,-0.5413,-0.5535,-0.5515,-0.5486,-0.5373,0.0,0.0,0.0,0.0,0.0,0.0,0.0,0.0,0.0,0.0,0.0,0.0,0.0,0.0,0.0,0.0,0.0,0.0,0.0,0.0,0.0,0.0,0.0,0.0,0.0,0.0,0.0,0.0,0.0,0.0,0.0,0.0,0.0,0.0,0.0,0.0,0.0,0.0,0.0,0.0,0.0,0.0,0.0,0.0,0.0,0.046,0.0722,0.1597,0.2456,0.2741,0.3992,0.5118,0.5118,0.5625,0.5995,0.0,0.5304,0.5053,0.5243,0.0,0.0,0.0,0.0,0.5607,0.5474,0.5535,0.5549,0.5412,0.5223,0.51,0.51,0.4882,0.4748,0.4748,0.462,0.4549,0.4549,0.4525,0.4505,0.0,0.0,0.0,0.0,0.0,0.0,0.0,0.0,0.0,0.0,0.0,0.0,0.0,0.0,0.0,0.0,0.0,0.0,0.0,0.0,0.0,0.0,0.0,0.0,0.0,0.0,0.0,0.0,0.0,0.0,-0.5796,-0.5066,0.0,0.0,0.0,0.0,-0.1361,-0.0527,0.0,0.0,0.0,0.0,0.0,0.0,0.0,0.0,0.0,0.0,0.0,0.0,0.0,0.0,0.0,0.0,0.0,0.0,0.0,0.0,0.0,0.0,0.0,0.0,0.0,0.0,0.0,0.0,0.0,0.0,0.0,0.0,0.0,0.0,0.0,0.0,0.0,0.0,0.0,0.0735,0.1743,0.2689,0.3738,0.4797,0.5815,0.6138,0.6222,0.6222,0.6254,0.6219,0.0,0.5858,0.5757,0.5772,0.0,0.5722,0.5751,0.5779,0.5739,0.5613,0.5603,0.5549,0.5412,0.5223,0.51,0.51,0.4977,0.4892,0.4892,0.4765,0.4691,0.4691,0.4566,0.4505,0.4505,0.4505,0.0,0.0,0.0,0.0,0.0,0.0,0.0,0.0,0.0,0.0,0.0,0.0,0.0,0.0,0.0,0.0,0.0,0.0,0.0,0.0,0.0,0.0,0.0,0.0,0.0,0.0,0.0,0.0,-0.4968,-0.4156,0.0,0.0,-0.2184,-0.1432,-0.1304,-0.0489,0.0,0.0,0.0,0.0,0.0,0.0,0.0,0.0,0.0,0.0,0.0,0.0,0.0,0.0,0.0,0.0,0.0,0.0,0.0,0.0,0.0,0.0,0.0,0.0,0.0,0.0,0.0,0.0,0.0,0.0,0.0,0.0,0.0,0.0,0.0,0.0,0.0,0.0,0.0,0.0775,0.1686,0.205,0.3419,0.4805,0.5176,0.5805,0.63,0.63,0.63,0.6282,0.6209,0.6154,0.6086,0.5947,0.603,0.6083,0.5944,0.6034,0.6062,0.5873,0.5786,0.5671,0.5542,0.5389,0.5297,0.5297,0.5126,0.5022,0.5022,0.4903,0.4796,0.4708,0.4651,0.459,0.4505,0.4505,0.4505,0.0,0.0,0.0,0.0,0.0,0.0,0.0,0.0,0.0,0.0,0.0,0.0,0.0,0.0,0.0,0.0,0.0,0.0,0.0,0.0,0.0,0.0,0.0,0.0,0.0,0.0,-0.4538,-0.4081,-0.3228,-0.2575,-0.2357,-0.1563,-0.0998,-0.0871,-0.0321,0.0,0.0,0.0,0.0,0.0,0.0,0.0,0.0,0.0,0.0,0.0,0.0,0.0,0.0,0.0,0.0,0.0,0.0,0.0,0.0,0.0,0.0,0.0,0.0,0.0,0.0,0.0,0.0,0.0,0.0,0.0,0.0,0.0,0.0,0.0,0.0,0.0,0.0,0.0,0.1026,0.2113,0.2113,0.3673,0.5237,0.5237,0.5786,0.63,0.63,0.63,0.63,0.63,0.63,0.6269,0.6125,0.6212,0.6265,0.6125,0.6216,0.6226,0.6032,0.5924,0.5823,0.5677,0.559,0.5525,0.5477,0.5345,0.5247,0.5213,0.5055,0.493,0.4843,0.4745,0.4657,0.4569,0.4566,0.4593,0.463,0.0,0.0,0.0,0.0,0.0,0.0,0.0,0.0,0.0,0.0,0.0,0.0,0.0,0.0,0.0,0.0,0.0,0.0,0.0,0.0,0.0,0.0,0.0,-0.4482,-0.4777,-0.4509,-0.3222,-0.2272,-0.1695,-0.1564,-0.061,0.0,0.0,0.0,0.0,0.0,0.0,0.0,0.0,0.0,0.0,0.0,0.0,0.0,0.0,0.0,0.0,0.0,0.0,0.0,0.0,0.0,0.0,0.0,0.0,0.0,0.0,0.0,0.0,0.0,0.0,0.0,0.0,0.0,0.0,0.0,0.0,0.0,0.0,0.0,0.0,0.0,0.0,0.1496,0.3106,0.3104,0.4691,0.6306,0.6306,0.6306,0.6306,0.6306,0.6303,0.63,0.63,0.63,0.63,0.63,0.63,0.63,0.63,0.63,0.0,0.6039,0.5996,0.5954,0.5823,0.5803,0.5745,0.5624,0.561,0.5545,0.5412,0.5223,0.5103,0.51,0.4857,0.4719,0.4712,0.4712,0.4772,0.4903,0.0,0.0,0.0,0.0,0.0,0.0,0.0,0.0,0.0,0.0,0.0,0.0,0.0,0.0,0.0,0.0,0.0,0.0,0.0,0.0,0.0,0.0,-0.3737,-0.3697,-0.3036,-0.2469,-0.2179,-0.117,-0.0488,-0.0441,-0.0163,0.0,0.0,0.0,0.0,0.0,0.0,0.0,0.0,0.0,0.0,0.0,0.0,0.0,0.0,0.0,0.0,0.0,0.0,0.0,0.0,0.0,0.0,0.0,0.0,0.0,0.0,0.0,0.0,0.0,0.0,0.0,0.0,0.0,0.0,0.0,0.0,0.0,0.0,0.0,0.0,0.0,0.0,0.1493,0.3094,0.3098,0.4764,0.6453,0.6453,0.6453,0.6453,0.6453,0.6371,0.63,0.63,0.63,0.63,0.63,0.63,0.63,0.63,0.63,0.0,0.6222,0.6098,0.5995,0.5954,0.5849,0.5786,0.5745,0.565,0.559,0.0,0.5399,0.5247,0.5103,0.5022,0.4947,0.4842,0.4842,0.4862,0.0,0.0,0.0,0.0,0.0,0.0,0.0,0.0,0.0,0.0,0.0,0.0,0.0,0.0,0.0,0.0,0.0,0.0,0.0,0.0,0.0,0.0,-0.2963,-0.256,-0.2055,-0.18,-0.1523,-0.1098,-0.0426,0.0,0.0,0.0,0.0,0.0,0.0,0.0,0.0,0.0,0.0,0.0,0.0,0.0,0.0,0.0,0.0,0.0,0.0,0.0,0.0,0.0,0.0,0.0,0.0,0.0,0.0,0.0,0.0,0.0,0.0,0.0,0.0,0.0,0.0,0.0,0.0,0.0,0.0,0.0,0.0,0.0,0.0,0.0,0.0,0.0,0.1534,0.3192,0.3189,0.4874,0.6586,0.6586,0.6586,0.6569,0.6505,0.6446,0.6371,0.6313,0.0,0.0,0.63,0.63,0.63,0.63,0.63,0.63,0.63,0.6202,0.6125,0.6125,0.6066,0.5966,0.5886,0.5805,0.0,0.0,0.0,0.5375,0.5106,0.51,0.0,0.0,0.0,0.0,0.0,0.0,0.0,0.0,0.5187,0.5167,0.0,0.0,0.0,0.0,0.0,0.0,0.0,0.0,0.0,0.0,0.0,0.0,0.0,0.0,0.0,0.0,-0.1602,-0.1219,-0.0144,-0.0911,-0.1197,-0.012,0.0,0.0,0.0,0.0,0.0,0.0,0.0,0.0,0.0,0.0,0.0,0.0,0.0,0.0,0.0,0.0,0.0,0.0,0.0,0.0,0.0,0.0,0.0,0.0,0.0,0.0,0.0,0.0,0.0,0.0,0.0,0.0,0.0,0.0,0.0,0.0,0.0,0.0,0.0,0.0,0.0,0.0,0.0,0.0,0.0,0.0,0.1605,0.3318,0.3312,0.5012,0.6725,0.6725,0.6725,0.6688,0.6573,0.6532,0.6481,0.6375,0.6334,0.6323,0.6323,0.631,0.63,0.63,0.63,0.63,0.63,0.63,0.63,0.63,0.0,0.0,0.6049,0.6022,0.5893,0.5633,0.5617,0.5474,0.5184,0.5174,0.5174,0.5174,0.5358,0.5511,0.5613,0.5739,0.581,0.5817,0.5383,0.5335,0.0,0.0,0.0,0.0,0.0,0.0,0.0,0.0,0.0,0.0,0.0,0.0,0.0,0.0,0.0,-0.1626,-0.0891,-0.027,-0.0025,-0.02,-0.0273,-0.0024,0.0,0.0,0.0,0.0,0.0,0.0,0.0,0.0,0.0,0.0,0.0,0.0,0.0,0.0,0.0,0.0,0.0,0.0,0.0,0.0,0.0,0.0,0.0,0.0,0.0,0.0,0.0,0.0,0.0,0.0,0.0,0.0,0.0,0.0,0.0,0.0,0.0,0.0,0.0,0.0,0.0,0.0,0.0,0.0,0.0,0.0,0.1622,0.3364,0.3323,0.507,0.6864,0.6864,0.6864,0.6853,0.6826,0.6742,0.6647,0.662,0.6535,0.645,0.645,0.6375,0.63,0.63,0.63,0.63,0.63,0.63,0.63,0.63,0.63,0.6286,0.6236,0.6101,0.5934,0.5772,0.5654,0.5613,0.5667,0.5671,0.5671,0.5671,0.5701,0.5732,0.5762,0.5786,0.5864,0.5961,0.5751,0.5705,0.0,0.0,0.0,0.0,0.0,0.0,0.0,0.0,0.0,0.0,0.0,-0.218,0.0,0.0,-0.0791,-0.0807,-0.0346,0.0,0.0,0.0,0.0,0.0,0.0,0.0,0.0,0.0,0.0,0.0,0.0,0.0,0.0,0.0,0.0,0.0,0.0,0.0,0.0,0.0,0.0,0.0,0.0,0.0,0.0,0.0,0.0,0.0,0.0,0.0,0.0,0.0,0.0,0.0,0.0,0.0,0.0,0.0,0.0,0.0,0.0,0.0,0.0,0.0,0.0,0.0,0.0,0.0,0.0,0.0,0.1257,0.2591,0.2563,0.4339,0.6156,0.6156,0.6595,0.697,0.6924,0.6847,0.6772,0.6715,0.6637,0.6607,0.6607,0.6484,0.6381,0.631,0.63,0.63,0.63,0.63,0.63,0.63,0.63,0.63,0.63,0.6118,0.5978,0.5903,0.5776,0.5728,0.5796,0.58,0.58,0.58,0.5859,0.5897,0.5897,0.5993,0.609,0.6146,0.6158,0.6117,0.0,0.0,0.0,0.0,0.0,0.0,0.0,0.0,-0.253,-0.1497,-0.1297,-0.1015,-0.0167,0.0,0.0,0.0,0.0,0.0,0.0,0.0,0.0,0.0,0.0,0.0,0.0,0.0,0.0,0.0,0.0,0.0,0.0,0.0,0.0,0.0,0.0,0.0,0.0,0.0,0.0,0.0,0.0,0.0,0.0,0.0,0.0,0.0,0.0,0.0,0.0,0.0,0.0,0.0,0.0,0.0,0.0,0.0,0.0,0.0,0.0,0.0,0.0,0.0,0.0,0.0,0.0,0.0,0.0,0.0,0.0874,0.179,0.179,0.3417,0.5045,0.5045,0.5758,0.6464,0.6579,0.66,0.6653,0.6747,0.6763,0.6746,0.6746,0.6614,0.6454,0.6358,0.6317,0.63,0.63,0.63,0.63,0.63,0.63,0.63,0.63,0.6118,0.6022,0.6052,0.591,0.5861,0.5891,0.5891,0.5891,0.5891,0.601,0.6055,0.6055,0.6219,0.6313,0.6344,0.646,0.645,-0.6695,-0.6664,0.0,-0.5729,-0.5237,-0.4473,0.0,0.0,-0.1469,-0.0387,-0.0173,-0.0149,-0.0025,0.0,0.0,0.0,0.0,0.0,0.0,0.0,0.0,0.0,0.0,0.0,0.0,0.0,0.0,0.0,0.0,0.0,0.0,0.0,0.0,0.0,0.0,0.0,0.0,0.0,0.0,0.0,0.0,0.0,0.0,0.0,0.0,0.0,0.0,0.0,0.0,0.0,0.0,0.0,0.0,0.0,0.0,0.0,0.0,0.0,0.0,0.0,0.0,0.0,0.0,0.0,0.0,0.0,0.0,0.0,0.0874,0.179,0.179,0.2791,0.3792,0.3792,0.3903,0.4281,0.5343,0.5562,0.5869,0.6872,0.6968,0.688,0.688,0.6664,0.6488,0.6471,0.6381,0.63,0.63,0.63,0.63,0.63,0.63,0.63,0.63,0.6118,0.6069,0.6246,0.6091,0.6064,0.6242,0.6248,0.6248,0.6248,0.6265,0.6272,0.6272,0.6289,0.6364,0.6471,0.6484,0.6484,-0.6111,0.0,0.0,0.0,-0.3781,-0.2986,-0.2085,-0.1249,-0.0536,-0.0099,0.0,0.0,0.0,0.0,0.0,0.0,0.0,0.0,0.0,0.0,0.0,0.0,0.0,0.0,0.0,0.0,0.0,0.0,0.0,0.0,0.0,0.0,0.0,0.0,0.0,0.0,0.0,0.0,0.0,0.0,0.0,0.0,0.0,0.0,0.0,0.0,0.0,0.0,0.0,0.0,0.0,0.0,0.0,0.0,0.0,0.0,0.0,0.0,0.0,0.0,0.0,0.0,0.0,0.0,0.0,0.0,0.0,0.0,0.0359,0.0763,0.0763,0.1657,0.2547,0.2547,0.3081,0.3748,0.4239,0.4352,0.4485,0.4974,0.5585,0.5796,0.511,0.5368,0.5654,0.5583,0.5987,0.63,0.63,0.63,0.63,0.63,0.63,0.63,0.63,0.6222,0.6212,0.6296,0.6219,0.6212,0.6296,0.63,0.63,0.63,0.63,0.634,0.6422,0.6422,0.6481,0.6627,0.6698,0.6736,-0.5199,0.0,0.0,-0.3221,-0.2517,-0.1838,-0.1406,-0.0618,0.0,0.0,0.0,0.0,0.0,0.0,0.0,0.0,0.0,0.0,0.0,0.0,0.0,0.0,0.0,0.0,0.0,0.0,0.0,0.0,0.0,0.0,0.0,0.0,0.0,0.0,0.0,0.0,0.0,0.0,0.0,0.0,0.0,0.0,0.0,0.0,0.0,0.0,0.0,0.0,0.0,0.0,0.0,0.0,0.0,0.0,0.0,0.0,0.0,0.0,0.0,0.0,0.0,0.0,0.0,0.0,0.0,0.0,0.0,0.0,0.0,0.0,0.0,0.0651,0.1299,0.1299,0.1969,0.2704,0.3037,0.3104,0.3191,0.3525,0.4307,0.4619,0.3748,0.4166,0.4594,0.4476,0.5009,0.5635,0.6232,0.63,0.63,0.63,0.63,0.6317,0.6354,0.6323,0.6317,0.6358,0.632,0.63,0.63,0.63,0.6317,0.6358,0.6358,0.6429,0.6556,0.6556,0.6614,0.6766,0.6857,0.6928,0.0,0.0,-0.3328,-0.2157,-0.1837,-0.1502,-0.0327,-0.0025,0.0,0.0,0.0,0.0,0.0,0.0,0.0,0.0,0.0,0.0,0.0,0.0,0.0,0.0,0.0,0.0,0.0,0.0,0.0,0.0,0.0,0.0,0.0,0.0,0.0,0.0,0.0,0.0,0.0,0.0,0.0,0.0,0.0,0.0,0.0,0.0,0.0,0.0,0.0,0.0,0.0,0.0,0.0,0.0,0.0,0.0,0.0,0.0,0.0,0.0,0.0,0.0,0.0,0.0,0.0,0.0,0.0,0.0,0.0,0.0,0.0,0.0,0.0,0.0022,0.0045,0.0045,0.009,0.0426,0.1612,0.1857,0.2191,0.3371,0.3636,0.3636,0.3614,0.3512,0.3439,0.3362,0.3263,0.3948,0.6038,0.63,0.63,0.63,0.63,0.6358,0.6474,0.6378,0.6358,0.6477,0.6375,0.63,0.63,0.63,0.6364,0.6484,0.6484,0.6559,0.6695,0.6695,0.6773,0.6901,0.6904,0.696,0.0,0.0,-0.1112,-0.0695,-0.06,-0.0501,-0.0101,0.0,0.0,0.0,0.0,0.0,0.0,0.0,0.0,0.0,0.0,0.0,0.0,0.0,0.0,0.0,0.0,0.0,0.0,0.0,0.0,0.0,0.0,0.0,0.0,0.0,0.0,0.0,0.0,0.0,0.0,0.0,0.0,0.0,0.0,0.0,0.0,0.0,0.0,0.0,0.0,0.0,0.0,0.0,0.0,0.0,0.0,0.0,0.0,0.0,0.0,0.0,0.0,0.0,0.0,0.0,0.0,0.0,0.0,0.0,0.0,0.0,0.0,0.0,0.0,0.0,0.0,0.0,0.0,0.0112,0.0516,0.0606,0.0718,0.1143,0.1857,0.2147,0.1344,0.1847,0.2306,0.2192,0.2693,0.3642,0.518,0.5366,0.5673,0.6471,0.6573,0.6593,0.662,0.6505,0.6484,0.6614,0.6413,0.6388,0.6563,0.6405,0.6416,0.662,0.6542,0.6617,0.683,0.683,0.6904,0.7024,0.7024,0.7051,0.0,-0.0583,0.0,0.0,0.0,0.0,0.0,0.0,0.0,0.0,0.0,0.0,0.0,0.0,0.0,0.0,0.0,0.0,0.0,0.0,0.0,0.0,0.0,0.0,0.0,0.0,0.0,0.0,0.0,0.0,0.0,0.0,0.0,0.0,0.0,0.0,0.0,0.0,0.0,0.0,0.0,0.0,0.0,0.0,0.0,0.0,0.0,0.0,0.0,0.0,0.0,0.0,0.0,0.0,0.0,0.0,0.0,0.0,0.0,0.0,0.0,0.0,0.0,0.0,0.0,0.0,0.0,0.0,0.0,0.0,0.0,0.0,0.0,0.0,0.0,0.0,0.0,0.0,0.0,0.0,0.0628,0.0919,0.0135,0.0647,0.1127,0.1033,0.1574,0.2538,0.406,0.4629,0.5194,0.5969,0.645,0.6722,0.6755,0.6644,0.662,0.6773,0.6573,0.6525,0.6695,0.6539,0.6552,0.6755,0.6685,0.6756,0.696,0.696,0.7007,0.7095,0.7095,0.7095,-0.0316,0.0,0.0,0.0,0.0,0.0,0.0,0.0,0.0,0.0,0.0,0.0,0.0,0.0,0.0,0.0,0.0,0.0,0.0,0.0,0.0,0.0,0.0,0.0,0.0,0.0,0.0,0.0,0.0,0.0,0.0,0.0,0.0,0.0,0.0,0.0,0.0,0.0,0.0,0.0,0.0,0.0,0.0,0.0,0.0,0.0,0.0,0.0,0.0,0.0,0.0,0.0,0.0,0.0,0.0,0.0,0.0,0.0,0.0,0.0,0.0,0.0,0.0,0.0,0.0,0.0,0.0,0.0,0.0,0.0,0.0,0.0,0.0,0.0,0.0,0.0,0.0,0.0,0.0,0.0,0.0,0.0,0.0,0.0,0.0,0.0,0.0,0.0734,0.2782,0.4034,0.4792,0.492,0.5945,0.6717,0.6883,0.6779,0.6755,0.6908,0.679,0.6709,0.6722,0.6709,0.6776,0.6914,0.6911,0.6957,0.7095,0.7095,0.7095,0.7095,0.7095,0.7095,-0.0073,0.0,0.0,0.0,0.0,0.0,0.0,0.0,0.0,0.0,0.0,0.0,0.0,0.0,0.0,0.0,0.0,0.0,0.0,0.0,0.0,0.0,0.0,0.0,0.0,0.0,0.0,0.0,0.0,0.0,0.0,0.0,0.0,0.0,0.0,0.0,0.0,0.0,0.0,0.0,0.0,0.0,0.0,0.0,0.0,0.0,0.0,0.0,0.0,0.0,0.0,0.0,0.0,0.0,0.0,0.0,0.0,0.0,0.0,0.0,0.0,0.0,0.0,0.0,0.0,0.0,0.0,0.0,0.0,0.0,0.0,0.0,0.0,0.0,0.0,0.0,0.0,0.0,0.0,0.0,0.0,0.0,0.0,0.0,0.0,0.0,0.0,0.0511,0.1939,0.2399,0.3277,0.5078,0.5559,0.61,0.6972,0.6931,0.6911,0.7034,0.6823,0.68,0.6995,0.6817,0.6799,0.7038,0.6962,0.6957,0.7095,0.7095,0.7095,0.7095,0.7095,0.7095,0.0,0.0,0.0,0.0,0.0,0.0,0.0,0.0,0.0,0.0,0.0,0.0,0.0,0.0,0.0,0.0,0.0,0.0,0.0,0.0,0.0,0.0,0.0,0.0,0.0,0.0,0.0,0.0,0.0,0.0,0.0,0.0,0.0,0.0,0.0,0.0,0.0,0.0,0.0,0.0,0.0,0.0,0.0,0.0,0.0,0.0,0.0,0.0,0.0,0.0,0.0,0.0,0.0,0.0,0.0,0.0,0.0,0.0,0.0,0.0,0.0,0.0,0.0,0.0,0.0,0.0,0.0,0.0,0.0,0.0,0.0,0.0,0.0,0.0,0.0,0.0,0.0,0.0,0.0,0.0,0.0,0.0,0.0,0.0,0.0,0.0,0.0,0.0247,0.0919,0.1478,0.2526,0.4419,0.4619,0.5287,0.6959,0.6583,0.6483,0.707,0.6965,0.6945,0.7088,0.6962,0.6948,0.7092,0.7018,0.7018,0.7095,0.7095,0.7095,0.7095,0.7095,0.7095,0.0,0.0,0.0,0.0,0.0,0.0,0.0,0.0,0.0,0.0,0.0,0.0,0.0,0.0,0.0,0.0,0.0,0.0,0.0,0.0,0.0,0.0,0.0,0.0,0.0,0.0,0.0,0.0,0.0,0.0,0.0,0.0,0.0,0.0,0.0,0.0,0.0,0.0,0.0,0.0,0.0,0.0,0.0,0.0,0.0,0.0,0.0,0.0,0.0,0.0,0.0,0.0,0.0,0.0,0.0,0.0,0.0,0.0,0.0,0.0,0.0,0.0,0.0,0.0,0.0,0.0,0.0,0.0,0.0,0.0,0.0,0.0,0.0,0.0,0.0,0.0,0.0,0.0,0.0,0.0,0.0,0.0,0.0,0.0,0.0,0.0,0.0,0.0,0.0,0.0919,0.2013,0.3237,0.3371,0.4261,0.6448,0.5869,0.5827,0.6805,0.7007,0.7095,0.7095,0.7095,0.7095,0.7095,0.7095,0.7095,0.7095,0.7095,0.7095,0.7095,0.7095,0.7095,0.0,0.0,0.0,0.0,0.0,0.0,0.0,0.0,0.0,0.0,0.0,0.0,0.0,0.0,0.0,0.0,0.0,0.0,0.0,0.0,0.0,0.0,0.0,0.0,0.0,0.0,0.0,0.0,0.0,0.0,0.0,0.0,0.0,0.0,0.0,0.0,0.0,0.0,0.0,0.0,0.0,0.0,0.0,0.0,0.0,0.0,0.0,0.0,0.0,0.0,0.0,0.0,0.0,0.0,0.0,0.0,0.0,0.0,0.0,0.0,0.0,0.0,0.0,0.0,0.0,0.0,0.0,0.0,0.0,0.0,0.0,0.0,0.0,0.0,0.0,0.0,0.0,0.0,0.0,0.0,0.0,0.0,0.0,0.0,0.0,0.0,0.0,0.0,0.0,0.018,0.0785,0.1991,0.2102,0.2681,0.4081,0.4932,0.5492,0.5694,0.6583,0.7095,0.7095,0.7095,0.7095,0.7095,0.7095,0.7095,0.7095,0.7095,0.7095,0.7095,0.7095,0.7095,0.0,0.0,0.0,0.0,0.0,0.0,0.0,0.0,0.0,0.0,0.0,0.0,0.0,0.0,0.0,0.0,0.0,0.0,0.0,0.0,0.0,0.0,0.0,0.0,0.0,0.0,0.0,0.0,0.0,0.0,0.0,0.0,0.0,0.0,0.0,0.0,0.0,0.0,0.0,0.0,0.0,0.0,0.0,0.0,0.0,0.0,0.0,0.0,0.0,0.0,0.0,0.0,0.0,0.0,0.0,0.0,0.0,0.0,0.0,0.0,0.0,0.0,0.0,0.0,0.0,0.0,0.0,0.0,0.0,0.0,0.0,0.0,0.0,0.0,0.0,0.0,0.0,0.0,0.0,0.0,0.0,0.0,0.0,0.0,0.0,0.0,0.0,0.0,0.0,0.0,0.0471,0.1678,0.1232,0.1612,0.3436,0.3549,0.3798,0.4419,0.4974,0.5285,0.5285,0.5285,0.5285,0.5285,0.5285,0.5285,0.5285,0.5285,0.5285,0.5285,0.5285,0.5285,0.0,0.0,0.0,0.0,0.0,0.0,0.0,0.0,0.0,0.0,0.0,0.0,0.0,0.0,0.0,0.0,0.0,0.0,0.0,0.0,0.0,0.0,0.0,0.0,0.0,0.0,0.0,0.0,0.0,0.0,0.0,0.0,0.0,0.0,0.0,0.0,0.0,0.0,0.0,0.0,0.0,0.0,0.0,0.0,0.0,0.0,0.0,0.0,0.0,0.0,0.0,0.0,0.0,0.0,0.0,0.0,0.0,0.0,0.0,0.0,0.0,0.0,0.0,0.0,0.0,0.0,0.0,0.0,0.0,0.0,0.0,0.0,0.0,0.0,0.0,0.0,0.0,0.0,0.0,0.0,0.0,0.0,0.0,0.0,0.0,0.0,0.0,0.0,0.0,0.0,0.0357,0.1313,0.056,0.0762,0.2659,0.2191,0.2214,0.3148,0.3458,0.3592,0.3592,0.3592,0.3592,0.3592,0.3592,0.3592,0.3592,0.3592,0.3592,0.3592,0.3592,0.3592,0.0,0.0,0.0,0.0,0.0,0.0,0.0,0.0,0.0,0.0,0.0,0.0,0.0,0.0,0.0,0.0,0.0,0.0,0.0,0.0,0.0,0.0,0.0,0.0,0.0,0.0,0.0,0.0,0.0,0.0,0.0,0.0,0.0,0.0,0.0,0.0,0.0,0.0,0.0,0.0,0.0,0.0,0.0,0.0,0.0,0.0,0.0,0.0,0.0,0.0,0.0,0.0,0.0,0.0,0.0,0.0,0.0,0.0,0.0,0.0,0.0,0.0,0.0,0.0,0.0,0.0,0.0,0.0,0.0,0.0,0.0,0.0,0.0,0.0,0.0,0.0,0.0,0.0,0.0,0.0,0.0,0.0,0.0,0.0,0.0,0.0,0.0,0.0,0.0,0.0,0.0044,0.0153,0.0067,0.009,0.0314,0.1232,0.1857,0.1969,0.2992,0.3592,0.3592,0.3592,0.3592,0.3592,0.3592,0.3592,0.3592,0.3592,0.3592,0.3592,0.3592,0.3592,0.0,0.0,0.0,0.0,0.0,0.0,0.0,0.0,0.0,0.0,0.0,0.0,0.0,0.0,0.0,0.0,0.0,0.0,0.0,0.0,0.0,0.0,0.0,0.0,0.0,0.0,0.0,0.0,0.0,0.0,0.0,0.0,0.0,0.0,0.0,0.0,0.0,0.0,0.0,0.0,0.0,0.0,0.0,0.0,0.0,0.0,0.0,0.0,0.0,0.0,0.0,0.0,0.0,0.0,0.0,0.0,0.0,0.0,0.0,0.0,0.0,0.0,0.0,0.0,0.0,0.0,0.0,0.0,0.0,0.0,0.0,0.0,0.0,0.0,0.0,0.0,0.0,0.0,0.0,0.0,0.0,0.0,0.0,0.0,0.0,0.0,0.0,0.0,0.0,0.0,0.0,0.0,0.0,0.0,0.0,0.0437,0.0726,0.0726,0.1157,0.1433,0.1433,0.1433,0.1433,0.1433,0.1433,0.1433,0.1433,0.1433,0.1433,0.1433,0.1433,0.1433,0.0,0.0,0.0,0.0,0.0,0.0,0.0,0.0,0.0,0.0,0.0,0.0,0.0,0.0,0.0,0.0,0.0,0.0,0.0,0.0,0.0,0.0,0.0,0.0,0.0,0.0,0.0,0.0,0.0,0.0,0.0,0.0,0.0,0.0,0.0,0.0,0.0,0.0,0.0,0.0,0.0,0.0,0.0,0.0,0.0,0.0,0.0,0.0,0.0,0.0,0.0,0.0,0.0,0.0,0.0,0.0,0.0,0.0,0.0,0.0,0.0,0.0,0.0,0.0,0.0,0.0,0.0,0.0,0.0,0.0,0.0,0.0,0.0,0.0,0.0,0.0,0.0,0.0,0.0,0.0,0.0,0.0,0.0,0.0,0.0,0.0,0.0,0.0,0.0,0.0,0.0,0.0,0.0,0.0,0.0,0.0,0.0,0.0,0.0,0.0,0.0,0.0,0.0,0.0,0.0,0.0,0.0,0.0,0.0,0.0,0.0,0.0,0.0,0.0,0.0,0.0,0.0,0.0,0.0,0.0,0.0,0.0,0.0,0.0,0.0,0.0,0.0,0.0,0.0,0.0,0.0,0.0,0.0,0.0,0.0,0.0,0.0,0.0,0.0,0.0,0.0,0.0,0.0,0.0,0.0,0.0,0.0,0.0,0.0,0.0,0.0,0.0,0.0,0.0,0.0,0.0,0.0,0.0,0.0,0.0,0.0,0.0,0.0,0.0,0.0,0.0,0.0,0.0,0.0,0.0,0.0,0.0,0.0,0.0,0.0,0.0,0.0,0.0,0.0,0.0,0.0,0.0,0.0,0.0,0.0,0.0,0.0,0.0,0.0,0.0,0.0,0.0,0.0,0.0,0.0,0.0,0.0,0.0,0.0,0.0,0.0,0.0,0.0,0.0,0.0,0.0,0.0,0.0,0.0,0.0,0.0,0.0,0.0,0.0,0.0,0.0,0.0,0.0,0.0,0.0,0.0,0.0,0.0,0.0,0.0,0.0,0.0,0.0,0.0,0.0,0.0,0.0,0.0,0.0,0.0,0.0,0.0,0.0,0.0,0.0,0.0,0.0,0.0,0.0,0.0,0.0,0.0,0.0,0.0,0.0,0.0,0.0,0.0,0.0,0.0,0.0,0.0,0.0,0.0,0.0,0.0,0.0,0.0,0.0,0.0,0.0,0.0,0.0,0.0,0.0,0.0,0.0,0.0,0.0,0.0,0.0,0.0,0.0,0.0,0.0,0.0,0.0,0.0,0.0,0.0,0.0,0.0,0.0,0.0,0.0,0.0,0.0,0.0,0.0,0.0,0.0,0.0,0.0,0.0,0.0,0.0,0.0,0.0,0.0,0.0,0.0,0.0,0.0,0.0,0.0,0.0,0.0,0.0,0.0,0.0,0.0,0.0,0.0,0.0,0.0,0.0,0.0,0.0,0.0,0.0,0.0,0.0,0.0,0.0,0.0,0.0,0.0,0.0,0.0,0.0,0.0,0.0,0.0,0.0,0.0,0.0,0.0,0.0,0.0,0.0,0.0,0.0,0.0,0.0,0.0,0.0,0.0,0.0,0.0,0.0,0.0,0.0,0.0,0.0,0.0,0.0,0.0,0.0,0.0,0.0,0.0,0.0,0.0,0.0,0.0,0.0,0.0,0.0,0.0,0.0,0.0,0.0,0.0,0.0,0.0,0.0,0.0,0.0,0.0,0.0,0.0,0.0,0.0,0.0,0.0,0.0,0.0,0.0,0.0,0.0,0.0,0.0,0.0,0.0,0.0,0.0,0.0,0.0,0.0,0.0,0.0,0.0,0.0,0.0,0.0,0.0,0.0,0.0,0.0,0.0,0.0,0.0,0.0,0.0,0.0,0.0,0.0,0.0,0.0,0.0,0.0,0.0,0.0,0.0,0.0,0.0,0.0,0.0,0.0,0.0,0.0,0.0,0.0,0.0,0.0,0.0,0.0,0.0,0.0,0.0,0.0,0.0,0.0,0.0,0.0,0.0,0.0,0.0,0.0,0.0,0.0,0.0,0.0,0.0,0.0,0.0,0.0,0.0,0.0,0.0,0.0,0.0,0.0,0.0,0.0,0.0,0.0,0.0,0.0,0.0,0.0,0.0,0.0,0.0,0.0,0.0,0.0,0.0,0.0,0.0,0.0,0.0,0.0,0.0,0.0,0.0,0.0,0.0,0.0,0.0,0.0,0.0,0.0,0.0,0.0,0.0,0.0,0.0,0.0,0.0,0.0,0.0,0.0,0.0,0.0,0.0,0.0,0.0,0.0,0.0,0.0,0.0,0.0,0.0,0.0,0.0,0.0,0.0,0.0,0.0,0.0,0.0,0.0,0.0,0.0,0.0,0.0,0.0,0.0,0.0,0.0,0.0,0.0,0.0,0.0,0.0,0.0,0.0,0.0,0.0,0.0,0.0,0.0,0.0,0.0,0.0,0.0,0.0,0.0,0.0,0.0,0.0,0.0,0.0,0.0,0.0,0.0,0.0,0.0,0.0,0.0,0.0,0.0,0.0,0.0,0.0,0.0,0.0,0.0,0.0,0.0,0.0,0.0,0.0,0.0,0.0,0.0,0.0,0.0,0.0,0.0,0.0,0.0,0.0,0.0,0.0,0.0,0.0,0.0,0.0,0.0,0.0,0.0,0.0,0.0,0.0,0.0,0.0,0.0,0.0,0.0,0.0,0.0,0.0,0.0,0.0,0.0,0.0,0.0,0.0,0.0,0.0,0.0,0.0,0.0,0.0,0.0,0.0,0.0,0.0,0.0,0.0,0.0,0.0,0.0,0.0,0.0,0.0,0.0,0.0,0.0,0.0,0.0,0.0,0.0,0.0,0.0,0.0,0.0,0.0,0.0,0.0,0.0,0.0,0.0,0.0,0.0,0.0,0.0,0.0,0.0,0.0,0.0,0.0,0.0,0.0,0.0,0.0,0.0,0.0,0.0,0.0,0.0,0.0,0.0,0.0,0.0,0.0,0.0,0.0,0.0,0.0,0.0,0.0,0.0,0.0,0.0,0.0,0.0,0.0,0.0,0.0,0.0,0.0,0.0,0.0,0.0,0.0,0.0,0.0,0.0,0.0,0.0,0.0,0.0,0.0,0.0,0.0,0.0,0.0,0.0,0.0,0.0,0.0,0.0,0.0,0.0,0.0,0.0,0.0,0.0,0.0,0.0,0.0,0.0,0.0,0.0,0.0,0.0,0.0,0.0,0.0,0.0,0.0,0.0,0.0,0.0,0.0,0.0,0.0,0.0,0.0,0.0,0.0,0.0,0.0,0.0,0.0,0.0,0.0,0.0,0.0,0.0,0.0,0.0,0.0,0.0,0.0,0.0,0.0,0.0,0.0,0.0,0.0,0.0,0.0,0.0,0.0,0.0,0.0,0.0,0.0,0.0,0.0,0.0,0.0,0.0,0.0,0.0,0.0,0.0,0.0,0.0,0.0,0.0,0.0,0.0,0.0,0.0,0.0,0.0,0.0,0.0,0.0,0.0,0.0,0.0,0.0,0.0,0.0,0.0,0.0,0.0,0.0,0.0,0.0,0.0,0.0,0.0,0.0,0.0,0.0,0.0,0.0,0.0,0.0,0.0,0.0,0.0,0.0,0.0,0.0,0.0,0.0,0.0,0.0,0.0,0.0,0.0,0.0,0.0,0.0,0.0,0.0,0.0,0.0,0.0,0.0,0.0,0.0,0.0,0.0,0.0,0.0,0.0,0.0,0.0,0.0,0.0,0.0,0.0,0.0,0.0,0.0,0.0,0.0,0.0,0.0,0.0,0.0,0.0,0.0,0.0,0.0,0.0,0.0,0.0,0.0,0.0,0.0,0.0,0.0,0.0,0.0,0.0,0.0,0.0,0.0,-0.0137,-0.0177,-0.002,-0.0137,-0.0235,-0.0235,-0.0235,-0.0314,-0.0471,-0.0177,0.0,0.0,0.0,0.0,0.0,0.0,-0.0079,-0.0235,-0.0079,-0.0079,-0.0235,-0.0079,0.0,0.0,0.0,0.0,0.0,0.0,0.0,0.0,0.0,0.0,0.0,0.0,0.0,0.0,0.0,0.0,0.0,0.0,0.0,0.0,0.0,0.0,0.0,0.0,0.0,0.0,0.0,0.0,0.0,0.0,0.0,0.0,0.0,0.0,0.0,0.0,0.0,0.0,0.0,0.0,0.0,0.0,0.0,0.0,0.0,0.0,0.0,0.0,0.0,0.0,0.0,0.0,0.0,0.0,0.0,0.0,0.0,0.0,0.0,0.0,0.0,0.0,0.0,0.0,0.0,0.0,0.0,0.0,0.0,0.0,0.0,0.0,0.0,0.0,0.0,0.0,0.0,0.0,0.0,0.0,0.0,0.0,0.0,0.0,0.0,0.0,0.0,0.0,0.0,0.0,-0.0784,-0.1,-0.0098,-0.0804,-0.1352,-0.1352,-0.1352,-0.1723,-0.2578,-0.0979,0.0,0.0,0.0,0.0,0.0,0.0,-0.0451,-0.1352,-0.0451,-0.0471,-0.1333,-0.0432,0.0,0.0,0.0,0.0,0.0,0.0,0.0,0.0,0.0,0.0,0.0,0.0,0.0,0.0,0.0,0.0,0.0,0.0,0.0,0.0,0.0,0.0,0.0,0.0,0.0,0.0,0.0,0.0,0.0,0.0,0.0,0.0,0.0,0.0,0.0,0.0,0.0,0.0,0.0,0.0,0.0,0.0,0.0,0.0,0.0,0.0,0.0,0.0,0.0,0.0,0.0,0.0,0.0,0.0,0.0,0.0,0.0,0.0,0.0,0.0,0.0,0.0,0.0,0.0,0.0,0.0,0.0,0.0,0.0,0.0,0.0,0.0,0.0,0.0,0.0,0.0,0.0,0.0,0.0,0.0,0.0,0.0,0.0,0.0,0.0,0.0,0.0,0.0,-0.0216,-0.0784,-0.1293,-0.1625,-0.1663,-0.2112,-0.2405,-0.2405,-0.2405,-0.2599,-0.3065,-0.2209,-0.1429,-0.0882,-0.0863,-0.0863,-0.0863,-0.0863,-0.1371,-0.2405,-0.1917,-0.1936,-0.2405,-0.1897,-0.139,0.0,0.0,0.0,0.0,0.0,0.0,0.0,0.0,0.0,0.0,0.0,0.0,0.0,0.0,0.0,0.0,0.0,0.0,0.0,0.0,0.0,0.0,0.0,0.0,0.0,0.0,0.0,0.0,0.0,0.0,0.0,0.0,0.0,0.0,0.0,0.0,0.0,0.0,0.0,0.0,0.0,0.0,0.0,0.0,0.0,0.0,0.0,0.0,0.0,0.0,0.0,0.0,0.0,0.0,0.0,0.0,0.0,0.0,0.0,0.0,0.0,0.0,0.0,0.0,0.0,0.0,0.0,0.0,0.0,0.0,0.0,0.0,0.0,0.0,0.0,0.0,0.0,0.0,0.0,0.0,0.0,0.0,0.0,0.0,-0.0079,-0.0334,-0.0373,-0.0765,-0.182,-0.2172,-0.2524,-0.3046,-0.3318,-0.3466,-0.3426,-0.3619,-0.374,-0.374,-0.3281,-0.2651,-0.1887,-0.1848,-0.1848,-0.1848,-0.1879,-0.2379,-0.336,-0.3147,-0.3167,-0.336,-0.3149,-0.2636,0.0,0.0,0.0,0.0,0.0,0.0,0.0,0.0,0.0,0.0,0.0,0.0,0.0,0.0,0.0,0.0,0.0,0.0,0.0,0.0,0.0,0.0,0.0,0.0,0.0,0.0,0.0,0.0,0.0,0.0,0.0,0.0,0.0,0.0,0.0,0.0,0.0,0.0,0.0,0.0,0.0,0.0,0.0,0.0,0.0,0.0,0.0,0.0,0.0,0.0,0.0,0.0,0.0,0.0,0.0,0.0,0.0,0.0,0.0,0.0,0.0,0.0,0.0,0.0,0.0,0.0,0.0,0.0,0.0,0.0,0.0,0.0,0.0,0.0,0.0,0.0,0.0,0.0,0.0,0.0,0.0,0.0,0.0,0.0,-0.0334,-0.1333,-0.1489,-0.1859,-0.287,-0.3865,-0.412,-0.3202,-0.3982,-0.4527,-0.4404,-0.5133,-0.5614,-0.5614,-0.3792,-0.2701,-0.2628,-0.2628,-0.2628,-0.2628,-0.2747,-0.3233,-0.4123,-0.3308,-0.3324,-0.4107,-0.3291,-0.2874,0.0,0.0,0.0,0.0,0.0,0.0,0.0,0.0,0.0,0.0,0.0,0.0,0.0,0.0,0.0,0.0,0.0,0.0,0.0,0.0,0.0,0.0,0.0,0.0,0.0,0.0,0.0,0.0,0.0,0.0,0.0,0.0,0.0,0.0,0.0,0.0,0.0,0.0,0.0,0.0,0.0,0.0,0.0,0.0,0.0,0.0,0.0,0.0,0.0,0.0,0.0,0.0,0.0,0.0,0.0,0.0,0.0,0.0,0.0,0.0,0.0,0.0,0.0,0.0,0.0,0.0,0.0,0.0,0.0,0.0,0.0,0.0,0.0,0.0,0.0,-0.0177,-0.0843,-0.1,-0.1176,-0.18,-0.1935,-0.1935,-0.1935,-0.1935,-0.2072,-0.2462,-0.2542,-0.2911,-0.3964,-0.4453,-0.4757,-0.4896,-0.5196,-0.5371,-0.5319,-0.5538,-0.5671,-0.5671,-0.5012,-0.4334,-0.3666,-0.363,-0.363,-0.363,-0.3682,-0.4195,-0.5186,-0.4871,-0.4868,-0.5186,-0.4853,-0.4342,0.0,0.0,0.0,0.0,0.0,0.0,0.0,0.0,0.0,0.0,0.0,0.0,0.0,0.0,0.0,0.0,0.0,0.0,0.0,0.0,0.0,0.0,0.0,0.0,0.0,0.0,0.0,0.0,0.0,0.0,0.0,0.0,0.0,0.0,0.0,0.0,0.0,0.0,0.0,0.0,0.0,0.0,0.0,0.0,0.0,0.0,0.0,0.0,0.0,0.0,0.0,0.0,0.0,0.0,0.0,0.0,0.0,0.0,0.0,0.0,-0.0059,-0.0392,-0.051,-0.0569,-0.0882,-0.0979,-0.0921,-0.0588,-0.0726,-0.0902,-0.0588,-0.0255,-0.0079,-0.0432,-0.051,-0.0784,-0.184,-0.2074,-0.2268,-0.2968,-0.3104,-0.3104,-0.3104,-0.3104,-0.3221,-0.3552,-0.3612,-0.4001,-0.506,-0.5142,-0.5319,-0.588,-0.5823,-0.5735,-0.5735,-0.5617,-0.5535,-0.5535,-0.5627,-0.5345,-0.4602,-0.4587,-0.4587,-0.4587,-0.4625,-0.498,-0.5681,-0.5711,-0.5708,-0.5681,-0.5711,-0.5341,0.0,0.0,0.0,0.0,0.0,0.0,0.0,0.0,0.0,0.0,0.0,0.0,0.0,0.0,0.0,0.0,0.0,0.0,0.0,0.0,0.0,0.0,0.0,0.0,0.0,0.0,0.0,0.0,0.0,0.0,0.0,0.0,0.0,0.0,0.0,0.0,0.0,0.0,0.0,0.0,0.0,0.0,0.0,0.0,0.0,0.0,0.0,0.0,0.0,0.0,0.0,-0.002,-0.002,-0.002,-0.002,-0.002,0.0,0.0,0.0,0.0,-0.0196,-0.1254,-0.1607,-0.1802,-0.2792,-0.3104,-0.289,-0.1899,-0.2327,-0.287,-0.188,-0.0824,-0.0294,-0.1372,-0.1607,-0.1899,-0.289,-0.3124,-0.3124,-0.3124,-0.3124,-0.3124,-0.3124,-0.3124,-0.3493,-0.455,-0.4705,-0.5096,-0.6157,-0.6122,-0.5951,-0.5817,-0.5674,-0.5607,-0.5603,-0.5481,-0.5412,-0.5428,-0.5428,-0.5412,-0.5395,-0.5395,-0.5395,-0.5395,-0.5528,-0.5528,-0.5395,-0.5532,-0.5525,-0.5399,-0.5535,-0.5607,0.0,0.0,0.0,0.0,0.0,0.0,0.0,0.0,0.0,0.0,0.0,0.0,0.0,0.0,0.0,0.0,0.0,0.0,0.0,0.0,0.0,0.0,0.0,0.0,0.0,0.0,0.0,0.0,0.0,0.0,0.0,0.0,0.0,0.0,0.0,0.0,0.0,0.0,0.0,0.0,0.0,0.0,0.0,0.0,0.0,0.0,0.0,0.0,0.0,0.0,-0.0451,-0.1118,-0.1118,-0.1118,-0.1118,-0.1118,-0.0647,0.0,0.0,-0.0491,-0.1176,-0.1489,-0.2074,-0.2716,-0.3007,-0.3104,-0.3046,-0.2735,-0.287,-0.3026,-0.2735,-0.2423,-0.2267,-0.2579,-0.2657,-0.295,-0.4003,-0.4217,-0.4453,-0.5198,-0.5354,-0.5354,-0.5354,-0.5354,-0.5418,-0.5594,-0.562,-0.5698,-0.5912,-0.581,-0.5701,-0.5657,-0.5535,-0.5708,-0.6315,-0.6329,-0.6576,-0.7186,-0.723,-0.6683,-0.5445,-0.5395,-0.5395,-0.5395,-0.544,-0.544,-0.5395,-0.544,-0.544,-0.5395,-0.5443,-0.5463,0.0,0.0,0.0,0.0,0.0,0.0,0.0,0.0,0.0,0.0,0.0,0.0,0.0,0.0,0.0,0.0,0.0,0.0,0.0,0.0,0.0,0.0,0.0,0.0,0.0,0.0,0.0,0.0,0.0,0.0,0.0,0.0,0.0,0.0,0.0,0.0,0.0,0.0,0.0,0.0,0.0,0.0,0.0,0.0,0.0,0.0,0.0,0.0,-0.0039,-0.0451,-0.102,-0.1645,-0.2035,-0.219,-0.219,-0.219,-0.1781,-0.1233,-0.1233,-0.1663,-0.227,-0.2699,-0.3244,-0.3807,-0.4237,-0.4373,-0.4275,-0.3865,-0.404,-0.4275,-0.3846,-0.4062,-0.4256,-0.3846,-0.3729,-0.4021,-0.5099,-0.5334,-0.5531,-0.618,-0.6229,-0.6188,-0.6188,-0.6137,-0.6066,-0.5934,-0.592,-0.5866,-0.5735,-0.5644,-0.5583,-0.5522,-0.5761,-0.6124,-0.6654,-0.7013,-0.7437,-0.7962,-0.7994,-0.7523,-0.647,-0.6437,-0.6437,-0.6437,-0.6437,-0.6256,-0.5914,-0.5914,-0.5736,-0.5395,-0.5395,-0.5395,0.0,0.0,0.0,0.0,0.0,0.0,0.0,0.0,0.0,0.0,0.0,0.0,0.0,0.0,0.0,0.0,0.0,0.0,0.0,0.0,0.0,0.0,0.0,0.0,0.0,0.0,0.0,0.0,0.0,0.0,0.0,0.0,0.0,0.0,0.0,0.0,0.0,0.0,0.0,0.0,0.0,0.0,0.0,0.0,0.0,0.0,0.0,0.0,-0.0079,-0.1157,-0.1646,-0.1841,-0.2852,-0.324,-0.324,-0.324,-0.3182,-0.3104,-0.3104,-0.3163,-0.3396,-0.4373,-0.4766,-0.5021,-0.6002,-0.63,-0.6103,-0.5118,-0.555,-0.6083,-0.5099,-0.5628,-0.6193,-0.5179,-0.4969,-0.5245,-0.6182,-0.6458,-0.6519,-0.6505,-0.6347,-0.6192,-0.6118,-0.6,-0.5886,-0.58,-0.5769,-0.5715,-0.5603,-0.5655,-0.5648,-0.5525,-0.6301,-0.685,-0.6932,-0.7665,-0.8156,-0.8237,-0.8237,-0.8237,-0.8237,-0.8091,-0.7994,-0.7994,-0.7994,-0.7616,-0.6817,-0.6736,-0.6301,-0.5524,-0.5445,-0.5395,0.0,0.0,0.0,0.0,0.0,0.0,0.0,0.0,0.0,0.0,0.0,0.0,0.0,0.0,0.0,0.0,0.0,0.0,0.0,0.0,0.0,0.0,0.0,0.0,0.0,0.0,0.0,0.0,0.0,0.0,0.0,0.0,0.0,0.0,0.0,0.0,0.0,0.0,0.0,0.0,0.0,0.0,0.0,0.0,0.0,0.0,0.0,0.0,-0.0079,-0.1157,-0.2074,-0.289,-0.3943,-0.4353,-0.4353,-0.4353,-0.3826,-0.3104,-0.3104,-0.3651,-0.4394,-0.4627,-0.5276,-0.6002,-0.6238,-0.63,-0.6261,-0.6025,-0.6122,-0.6241,-0.6025,-0.671,-0.7344,-0.6851,-0.6942,-0.7087,-0.695,-0.7632,-0.8199,-0.7988,-0.7923,-0.7664,-0.6975,-0.6839,-0.6555,-0.5755,-0.5552,-0.5481,-0.5446,-0.6033,-0.6457,-0.6416,-0.7193,-0.7994,-0.8678,-0.8909,-0.9316,-1.0002,-1.004,-1.004,-1.004,-0.8721,-0.7994,-0.7994,-0.7994,-0.7913,-0.7713,-0.703,-0.6605,-0.6396,-0.5719,-0.5395,0.0,0.0,0.0,0.0,0.0,0.0,0.0,0.0,0.0,0.0,0.0,0.0,0.0,0.0,0.0,0.0,0.0,0.0,0.0,0.0,0.0,0.0,0.0,0.0,0.0,0.0,0.0,0.0,0.0,0.0,0.0,0.0,0.0,0.0,0.0,0.0,0.0,0.0,0.0,0.0,0.0,0.0,0.0,0.0,0.0,0.0,0.0,0.0,-0.0118,-0.1683,-0.2618,-0.326,-0.4844,-0.5473,-0.5473,-0.5473,-0.5118,-0.4627,-0.4627,-0.4941,-0.5318,-0.5318,-0.5705,-0.6135,-0.6083,-0.611,-0.6135,-0.6079,-0.6059,-0.6152,-0.6578,-0.7076,-0.7502,-0.7677,-0.8016,-0.8166,-0.7807,-0.819,-0.8572,-0.8423,-0.8342,-0.8152,-0.7711,-0.7233,-0.6596,-0.5644,-0.5446,-0.5557,-0.5963,-0.6412,-0.6866,-0.7274,-0.8107,-0.8812,-0.9258,-0.969,-1.0126,-1.0577,-1.0609,-1.0609,-1.0609,-0.9725,-0.924,-0.924,-0.924,-0.9032,-0.8619,-0.7746,-0.7111,-0.6687,-0.5802,-0.5395,0.0,0.0,0.0,0.0,0.0,0.0,0.0,0.0,0.0,0.0,0.0,0.0,0.0,0.0,0.0,0.0,0.0,0.0,0.0,0.0,0.0,0.0,0.0,0.0,0.0,0.0,0.0,0.0,0.0,0.0,0.0,0.0,0.0,0.0,0.0,0.0,0.0,0.0,0.0,0.0,0.0,0.0,0.0,0.0,0.0,0.0,0.0,-0.0098,-0.0432,-0.2326,-0.3202,-0.3571,-0.5531,-0.63,-0.63,-0.63,-0.63,-0.63,-0.63,-0.6195,-0.6045,-0.6018,-0.5993,-0.5981,-0.5847,-0.587,-0.5981,-0.6014,-0.6033,-0.6226,-0.7096,-0.7447,-0.7728,-0.8283,-0.8812,-0.9068,-0.8652,-0.8706,-0.8838,-0.8784,-0.8565,-0.834,-0.8189,-0.7352,-0.6461,-0.5736,-0.562,-0.5947,-0.6817,-0.7062,-0.7421,-0.814,-0.9005,-0.953,-0.953,-1.019,-1.0609,-1.0609,-1.0609,-1.0609,-1.0609,-1.0609,-1.0609,-1.0609,-1.0609,-1.0174,-0.9306,-0.842,-0.7551,-0.6687,-0.5802,-0.5395,0.0,0.0,0.0,0.0,0.0,0.0,0.0,0.0,0.0,0.0,0.0,0.0,0.0,0.0,0.0,0.0,0.0,0.0,0.0,0.0,0.0,0.0,0.0,0.0,0.0,0.0,0.0,0.0,0.0,0.0,0.0,0.0,0.0,0.0,0.0,0.0,0.0,0.0,0.0,0.0,0.0,0.0,0.0,0.0,0.0,0.0,0.0,-0.053,-0.147,-0.2618,-0.3651,-0.4608,-0.5825,-0.63,-0.63,-0.63,-0.63,-0.63,-0.63,-0.6286,-0.6226,-0.6055,-0.5993,-0.5981,-0.5847,-0.5817,-0.5989,-0.6712,-0.6918,-0.7131,-0.8003,-0.8877,-0.9501,-0.9361,-1.0031,-1.0436,-0.941,-0.9956,-1.0583,-1.0361,-0.9683,-0.8911,-0.8154,-0.7293,-0.6654,-0.6543,-0.6523,-0.6834,-0.7718,-0.8484,-0.8995,-0.9107,-0.9897,-1.0428,-1.0428,-1.053,-1.0609,-1.0609,-1.0609,-1.0609,-1.0609,-1.0609,-1.0609,-1.0609,-1.0609,-1.0174,-0.9306,-0.842,-0.7551,-0.6687,-0.5802,-0.5395,0.0,0.0,0.0,0.0,0.0,0.0,0.0,0.0,0.0,0.0,0.0,0.0,0.0,0.0,0.0,0.0,0.0,0.0,0.0,0.0,0.0,0.0,0.0,0.0,0.0,0.0,0.0,0.0,0.0,0.0,0.0,0.0,0.0,0.0,0.0,0.0,0.0,0.0,0.0,0.0,0.0,0.0,0.0,0.0,0.0,0.0,0.0,-0.0608,-0.1685,-0.2677,-0.3729,-0.4805,-0.5886,-0.63,-0.63,-0.63,-0.63,-0.63,-0.63,-0.6222,-0.6105,-0.5934,-0.6208,-0.6573,-0.6375,-0.6704,-0.7212,-0.7512,-0.7598,-0.78,-0.8674,-0.9231,-0.9656,-1.0033,-1.0451,-1.0635,-1.0136,-1.0415,-1.0747,-1.062,-1.0285,-0.9754,-0.8877,-0.8404,-0.7994,-0.7502,-0.7421,-0.7746,-0.8613,-0.9059,-0.9482,-0.9977,-1.0364,-1.0609,-1.0609,-1.0609,-1.0609,-1.0609,-1.0609,-1.0609,-1.0609,-1.0609,-1.0609,-1.0609,-1.0609,-1.0412,-1.0031,-0.8662,-0.78,-0.7388,-0.6029,-0.5347,0.0,0.0,0.0,0.0,0.0,0.0,0.0,0.0,0.0,0.0,0.0,0.0,0.0,0.0,0.0,0.0,0.0,0.0,0.0,0.0,0.0,0.0,0.0,0.0,0.0,0.0,0.0,0.0,0.0,0.0,0.0,0.0,0.0,0.0,0.0,0.0,0.0,0.0,0.0,0.0,0.0,0.0,0.0,0.0,0.0,0.0,0.0,-0.0745,-0.2035,-0.2792,-0.3884,-0.5176,-0.5983,-0.63,-0.63,-0.63,-0.63,-0.63,-0.63,-0.6202,-0.6102,-0.6197,-0.6618,-0.7104,-0.7125,-0.7605,-0.8179,-0.8289,-0.8334,-0.8533,-0.9412,-0.9626,-0.9786,-1.045,-1.0609,-1.0609,-1.0609,-1.0609,-1.0609,-1.0609,-1.0609,-1.0317,-0.945,-0.9306,-0.9075,-0.8436,-0.8334,-0.8646,-0.9514,-0.9626,-0.9881,-1.053,-1.0609,-1.0609,-1.0609,-1.0609,-1.0609,-1.0609,-1.0609,-1.0609,-1.0609,-1.0609,-1.0609,-1.0609,-1.0609,-1.0491,-1.0269,-0.8692,-0.7837,-0.7632,-0.6049,-0.524,0.0,0.0,0.0,0.0,0.0,0.0,0.0,0.0,0.0,0.0,0.0,0.0,0.0,0.0,0.0,0.0,0.0,0.0,0.0,0.0,0.0,0.0,0.0,0.0,0.0,0.0,0.0,0.0,0.0,0.0,0.0,0.0,0.0,0.0,0.0,0.0,0.0,0.0,0.0,0.0,0.0,0.0,0.0,0.0,0.0,0.0,0.0,-0.1156,-0.3026,-0.3085,-0.4334,-0.6219,-0.628,-0.63,-0.63,-0.63,-0.63,-0.63,-0.63,-0.6293,-0.6412,-0.7174,-0.7273,-0.7253,-0.8069,-0.8167,-0.8172,-0.8995,-0.9226,-0.9428,-1.0301,-1.053,-1.0545,-1.0593,-1.0609,-1.0609,-1.0609,-1.0609,-1.0609,-1.0609,-1.0609,-1.0317,-0.945,-0.9306,-0.929,-0.9236,-0.9226,-0.9546,-1.0412,-1.053,-1.0545,-1.0609,-1.0609,-1.0609,-1.0609,-1.0609,-1.0609,-1.0609,-1.0609,-1.0609,-1.0609,-1.0609,-1.0609,-1.0609,-1.0609,-1.019,-0.937,-0.8248,-0.7397,-0.6748,-0.5637,-0.5106,0.0,0.0,0.0,0.0,0.0,0.0,0.0,0.0,0.0,0.0,0.0,0.0,0.0,0.0,0.0,0.0,0.0,0.0,0.0,0.0,0.0,0.0,0.0,0.0,0.0,0.0,0.0,0.0,0.0,0.0,0.0,0.0,0.0,0.0,0.0,0.0,0.0,0.0,0.0,0.0,0.0,-0.0353,-0.102,-0.102,-0.1371,-0.1994,-0.1994,-0.2404,-0.3163,-0.3846,-0.4979,-0.63,-0.63,-0.63,-0.63,-0.63,-0.63,-0.63,-0.63,-0.6718,-0.7259,-0.7255,-0.7998,-0.8901,-0.8959,-0.9306,-0.9732,-1.0056,-1.0126,-1.0206,-1.0523,-1.0609,-1.0609,-1.0609,-1.0609,-1.0609,-1.0609,-1.0609,-1.0609,-1.0609,-1.0609,-1.0498,-1.019,-1.0126,-1.0126,-1.0126,-1.0126,-1.0253,-1.0561,-1.0609,-1.0609,-1.0609,-1.0609,-1.0609,-1.0609,-1.0609,-1.0609,-1.0609,-1.0609,-1.0609,-1.0609,-1.0609,-1.0609,-1.0609,-1.0609,-1.0115,-0.9109,-0.8641,-0.7706,-0.6376,-0.5982,-0.5457,0.0,0.0,0.0,0.0,0.0,0.0,0.0,0.0,0.0,0.0,0.0,0.0,0.0,0.0,0.0,0.0,0.0,0.0,0.0,0.0,0.0,0.0,0.0,0.0,0.0,0.0,0.0,0.0,0.0,0.0,0.0,0.0,0.0,0.0,0.0,0.0,0.0,0.0,0.0,0.0,-0.0373,-0.0902,-0.1607,-0.1957,-0.2462,-0.3124,-0.3474,-0.3632,-0.369,-0.4414,-0.5334,-0.63,-0.63,-0.63,-0.63,-0.63,-0.63,-0.6358,-0.6683,-0.723,-0.7854,-0.8231,-0.9042,-0.9921,-0.9975,-1.0274,-1.0609,-1.0609,-1.0609,-1.0609,-1.0609,-1.0609,-1.0609,-1.0609,-1.0609,-1.0609,-1.0609,-1.0609,-1.0609,-1.0609,-1.0609,-1.0609,-1.0609,-1.0609,-1.0609,-1.0609,-1.0609,-1.0609,-1.0609,-1.0609,-1.0609,-1.0609,-1.0609,-1.0609,-1.0609,-1.0609,-1.0609,-1.0609,-1.0609,-1.0609,-1.0609,-1.0609,-1.0609,-1.0609,-1.0609,-0.9903,-0.8497,-0.8658,-0.7994,-0.6569,-0.6277,-0.5647,0.0,0.0,0.0,0.0,0.0,0.0,0.0,0.0,0.0,0.0,0.0,0.0,0.0,0.0,0.0,0.0,0.0,0.0,0.0,0.0,0.0,0.0,0.0,0.0,0.0,0.0,0.0,0.0,0.0,0.0,0.0,0.0,0.0,0.0,0.0,0.0,0.0,0.0,-0.002,-0.0059,-0.1097,-0.1626,-0.1724,-0.2696,-0.3163,-0.326,-0.4295,-0.4746,-0.4746,-0.4746,-0.5354,-0.63,-0.63,-0.63,-0.63,-0.63,-0.63,-0.6451,-0.7461,-0.7821,-0.818,-1.0142,-1.0419,-1.0129,-1.1101,-1.1015,-1.06,-1.0593,-1.0609,-1.0609,-1.0609,-1.0609,-1.0609,-1.0609,-1.0609,-1.0609,-1.0609,-1.0609,-1.0609,-1.0609,-1.0609,-1.0609,-1.0609,-1.0609,-1.0609,-1.0609,-1.0609,-1.0609,-1.0609,-1.0609,-1.0609,-1.0609,-1.0609,-1.0609,-1.0609,-1.0609,-1.0609,-1.0609,-1.0609,-1.0609,-1.0609,-1.0609,-1.0593,-1.0561,-1.0561,-0.9544,-0.7468,-0.8222,-0.8137,-0.7225,-0.6372,-0.5608,0.0,0.0,0.0,0.0,0.0,0.0,0.0,0.0,0.0,0.0,0.0,0.0,0.0,0.0,0.0,0.0,0.0,0.0,0.0,0.0,0.0,0.0,0.0,0.0,0.0,0.0,0.0,0.0,0.0,0.0,0.0,0.0,0.0,0.0,0.0,0.0,0.0,0.0,-0.0392,-0.1157,-0.145,-0.2387,-0.3848,-0.4139,-0.4686,-0.5431,-0.5728,-0.5867,-0.5867,-0.5867,-0.6025,-0.63,-0.63,-0.63,-0.63,-0.63,-0.63,-0.6451,-0.7461,-0.8275,-0.9063,-1.0169,-1.0886,-1.1324,-1.1158,-1.1019,-1.0845,-1.0646,-1.0609,-1.0609,-1.0609,-1.0609,-1.0609,-1.0609,-1.0609,-1.0609,-1.0609,-1.0609,-1.0609,-1.0609,-1.0609,-1.0609,-1.0609,-1.0609,-1.0609,-1.0609,-1.0609,-1.0609,-1.0609,-1.0609,-1.0609,-1.0609,-1.0609,-1.0609,-1.0609,-1.0609,-1.0609,-1.0609,-1.0609,-1.0609,-1.0609,-1.0609,-1.0301,-0.9674,-0.9658,-0.8629,-0.6569,-0.7936,-0.7712,-0.5988,-0.575,-0.5604,0.0,0.0,0.0,0.0,0.0,0.0,0.0,0.0,0.0,0.0,0.0,0.0,0.0,0.0,0.0,0.0,0.0,0.0,0.0,0.0,0.0,0.0,0.0,0.0,0.0,0.0,0.0,0.0,0.0,0.0,0.0,0.0,0.0,0.0,0.0,0.0,0.0,-0.0435,-0.098,-0.1607,-0.2485,-0.3536,-0.4708,-0.5157,-0.5709,-0.63,-0.63,-0.63,-0.63,-0.63,-0.63,-0.63,-0.63,-0.63,-0.63,-0.63,-0.6567,-0.708,-0.8069,-0.9083,-1.0074,-1.0912,-1.1502,-1.1819,-1.1316,-1.1089,-1.0945,-1.0673,-1.0609,-1.0609,-1.0609,-1.0609,-1.0609,-1.0609,-1.0609,-1.0609,-1.0609,-1.0609,-1.0609,-1.0609,-1.0609,-1.0609,-1.0609,-1.0609,-1.0609,-1.0609,-1.0609,-1.0609,-1.0609,-1.0609,-1.0609,-1.0609,-1.0609,-1.0609,-1.0609,-1.0269,-1.0063,-1.0063,-0.9716,-0.9678,-1.004,-0.9716,-0.9444,-0.9306,-0.8941,-0.8059,-0.6664,-0.7901,-0.7675,-0.6073,-0.5686,-0.5439,0.0,0.0,0.0,0.0,0.0,0.0,0.0,0.1812,0.0,0.0,0.0,0.0,0.0,0.0,0.0,0.0,0.0,0.0,0.0,0.0,0.0,0.0,0.0,0.0,0.0,0.0,0.0,0.0,0.0,0.0,0.0,0.0,0.0,0.0,0.0,0.0,0.0,-0.1058,-0.1665,-0.1782,-0.375,-0.4766,-0.4902,-0.5867,-0.63,-0.63,-0.63,-0.63,-0.63,-0.63,-0.63,-0.63,-0.63,-0.63,-0.63,-0.63,-0.6926,-0.7955,-0.8955,-0.9951,-1.0975,-1.1978,-1.2149,-1.1875,-1.1506,-1.1226,-1.0975,-1.068,-1.0609,-1.0609,-1.0609,-1.0609,-1.0609,-1.0609,-1.0609,-1.0609,-1.0609,-1.0609,-1.0609,-1.0609,-1.0609,-1.0609,-1.0609,-1.0609,-1.0609,-1.0609,-1.0609,-1.0609,-1.0609,-1.0609,-1.0609,-1.0609,-1.0609,-1.0609,-1.0609,-0.9802,-0.9306,-0.9306,-0.8484,-0.8355,-0.9123,-0.842,-0.8323,-0.8995,-0.8125,-0.7532,-0.7275,-0.79,-0.7782,-0.6963,-0.6046,-0.5361,0.0,0.0,0.1469,0.0,0.0,0.0,0.0,0.3102,0.0,0.0,0.0,0.0,0.0,0.0,0.0,0.0,0.0,0.0,0.0,0.0,0.0,0.0,0.0,0.0,0.0,0.0,0.0,0.0,0.0,0.0,0.0,0.0,0.0,0.0,0.0,0.0,0.0,-0.1058,-0.1996,-0.2833,-0.41,-0.5157,-0.6002,-0.6203,-0.63,-0.63,-0.63,-0.63,-0.63,-0.63,-0.63,-0.63,-0.63,-0.63,-0.63,-0.63,-0.6926,-0.7955,-0.8955,-0.9951,-1.0975,-1.1978,-1.2265,-1.2118,-1.1573,-1.1366,-1.1212,-1.074,-1.0609,-1.0609,-1.0609,-1.0609,-1.0609,-1.0609,-1.0609,-1.0609,-1.0609,-1.0609,-1.0609,-1.0609,-1.0609,-1.0609,-1.0609,-1.0609,-1.0609,-1.0609,-1.0609,-1.0609,-1.0609,-1.0609,-1.0609,-1.0609,-1.0609,-1.0609,-1.0609,-0.9802,-0.9306,-0.9306,-0.8484,-0.8075,-0.8253,-0.8091,-0.7751,-0.7226,-0.6092,-0.6048,-0.7136,-0.7011,-0.716,-0.7518,-0.6752,-0.6323,0.0,0.0,0.2045,0.3084,0.0,0.0,0.0,0.0,0.0,0.0,0.0,0.0,0.0,0.0,0.0,0.0,0.0,0.0,0.0,0.0,0.0,0.0,0.0,0.0,0.0,0.0,0.0,0.0,0.0,0.0,0.0,0.0,0.0,0.0,0.0,-0.0265,-0.0785,-0.182,-0.2872,-0.3904,-0.4979,-0.5786,-0.63,-0.63,-0.63,-0.63,-0.63,-0.63,-0.63,-0.63,-0.63,-0.63,-0.63,-0.63,-0.6358,-0.6872,-0.7687,-0.8689,-0.9707,-1.0714,-1.1638,-1.215,-1.2305,-1.2218,-1.1777,-1.1443,-1.1122,-1.0713,-1.0609,-1.0609,-1.0609,-1.0609,-1.0609,-1.0609,-1.0609,-1.0609,-1.0609,-1.0609,-1.0609,-1.0609,-1.0609,-1.0609,-1.0609,-1.0609,-1.0609,-1.0609,-1.0609,-1.0609,-1.0609,-1.0609,-1.0609,-1.0609,-1.0609,-1.0609,-1.0609,-0.9802,-0.9123,-0.8678,-0.7832,-0.7356,-0.7356,-0.6936,-0.6457,-0.5912,-0.5181,-0.5344,-0.6448,-0.6184,-0.6619,-0.767,-0.6565,-0.605,0.0,0.0,0.0,0.0,0.0,0.5488,0.0,0.0,0.0,0.0,0.0,0.0,0.0,0.0,0.0,0.0,0.0,0.0,0.0,0.0,0.0,0.0,0.0,0.0,0.0,0.0,0.0,0.0,0.0,0.0,0.0,0.0,0.0,0.0,-0.0206,-0.0724,-0.1587,-0.2794,-0.3846,-0.4708,-0.5786,-0.63,-0.63,-0.63,-0.63,-0.63,-0.63,-0.63,-0.63,-0.63,-0.63,-0.63,-0.63,-0.6416,-0.6683,-0.7499,-0.8556,-0.9707,-1.0522,-1.1465,-1.2305,-1.2305,-1.2265,-1.2178,-1.198,-1.148,-1.0942,-1.074,-1.0633,-1.0609,-1.0609,-1.0609,-1.0609,-1.0609,-1.0609,-1.0609,-1.0609,-1.0609,-1.0609,-1.0609,-1.0609,-1.0609,-1.0609,-1.0609,-1.0609,-1.0609,-1.0609,-1.0609,-1.0609,-1.0609,-1.0609,-1.0609,-1.0609,-1.0609,-1.0609,-0.9802,-0.8931,-0.8059,-0.7177,-0.6621,-0.6461,-0.5765,-0.5294,-0.5063,-0.4857,-0.5093,-0.5801,-0.5593,-0.6262,-0.767,-0.6195,-0.5583,0.0,0.0,0.0,0.0,0.5996,0.0,0.0,0.0,0.0,0.0,0.0,0.0,0.0,0.0,0.0,0.0,0.0,0.0,0.0,0.0,0.0,0.0,0.0,0.0,0.0,0.0,0.0,0.0,0.0,0.0,0.0,0.0,0.0,0.0,-0.0926,-0.1486,-0.1607,-0.3536,-0.4569,-0.4708,-0.5786,-0.63,-0.63,-0.63,-0.63,-0.63,-0.63,-0.63,-0.63,-0.63,-0.63,-0.63,-0.63,-0.6853,-0.7648,-0.7763,-0.9002,-1.0652,-1.0764,-1.1465,-1.2305,-1.2305,-1.2149,-1.1946,-1.1913,-1.148,-1.0982,-1.0955,-1.0771,-1.0609,-1.0609,-1.0609,-1.0609,-1.0609,-1.0609,-1.0609,-1.0609,-1.0609,-1.0609,-1.0609,-1.0609,-1.0609,-1.0609,-1.0609,-1.0609,-1.0609,-1.0609,-1.0609,-1.0609,-1.0609,-1.0609,-1.0609,-1.0609,-1.0609,-1.0609,-0.9802,-0.8931,-0.8059,-0.7177,-0.635,-0.557,-0.5458,-0.5246,-0.4933,-0.4896,-0.5177,-0.5801,-0.5593,-0.6262,-0.767,-0.6195,-0.5846,0.0,0.0,0.0,0.0,0.0,0.0,0.0,0.0,0.6924,0.0,0.0,0.0,0.0,0.0,0.0,0.0,0.0,0.0,0.0,0.0,0.0,0.0,0.0,0.0,0.0,0.0,0.0,0.0,0.0,0.0,0.0,-0.066,-0.101,-0.0924,-0.2051,-0.2884,-0.3402,-0.4258,-0.5021,-0.5628,-0.6083,-0.63,-0.63,-0.63,-0.63,-0.63,-0.63,-0.63,-0.6338,-0.6926,-0.7176,-0.723,-0.7821,-0.7936,-0.7936,-0.9116,-1.0072,-1.0882,-1.1465,-1.1959,-1.2305,-1.2305,-1.2218,-1.2076,-1.1717,-1.1436,-1.1176,-1.0851,-1.0687,-1.0609,-1.0609,-1.0609,-1.0609,-1.0609,-1.0609,-1.0609,-1.0609,-1.0609,-1.0609,-1.0609,-1.0609,-1.0609,-1.0609,-1.0609,-1.0609,-1.0609,-1.0609,-1.0609,-1.0609,-1.0609,-1.0609,-1.0609,-1.0609,-1.0609,-1.0609,-1.0253,-0.947,-0.8091,-0.6707,-0.5782,-0.5412,-0.529,-0.5131,-0.4906,-0.483,-0.4871,-0.5043,-0.4958,-0.5437,-0.6411,-0.5783,-0.5665,0.5233,0.0,0.0,0.0,0.0,0.0,0.0,0.0,0.0,0.0,0.0,0.0,0.0,0.0,0.0,0.0,0.0,0.0,0.0,0.0,0.0,0.0,0.0,0.0,0.0,0.0,0.0,0.0,0.0,0.0,-0.0472,-0.1317,-0.1887,-0.2055,-0.3195,-0.4101,-0.4688,-0.5002,-0.5531,-0.63,-0.63,-0.63,-0.63,-0.63,-0.63,-0.63,-0.63,-0.6451,-0.6776,-0.7499,-0.7955,-0.8313,-0.931,-0.9272,-0.8799,-1.026,-1.0969,-1.1316,-1.2058,-1.2305,-1.2305,-1.2305,-1.2305,-1.2204,-1.1686,-1.1472,-1.1306,-1.0838,-1.0653,-1.0609,-1.0609,-1.0609,-1.0609,-1.0609,-1.0609,-1.0609,-1.0609,-1.0609,-1.0609,-1.0609,-1.0609,-1.0609,-1.0609,-1.0609,-1.0609,-1.0609,-1.0609,-1.0609,-1.0609,-1.0609,-1.0609,-1.0609,-1.0609,-1.0609,-1.0609,-1.038,-0.9502,-0.7746,-0.6223,-0.5375,-0.5314,-0.5233,-0.5092,-0.4906,-0.4809,-0.4691,-0.4552,-0.4525,-0.4842,-0.5501,-0.5314,-0.5324,0.0,0.0,0.0,0.6985,0.0,0.0,0.0,0.0,0.679,0.0,0.0,0.0,0.0,0.0,0.0,0.0,0.0,0.0,0.0,0.0,0.0,0.0,0.0,0.0,0.0,0.0,0.0,0.0,0.0,0.0,-0.1678,-0.1776,-0.2251,-0.3205,-0.4281,-0.4803,-0.4708,-0.5728,-0.6261,-0.63,-0.63,-0.63,-0.63,-0.63,-0.63,-0.63,-0.63,-0.6853,-0.7763,-0.7783,-0.837,-0.9353,-1.0359,-1.0727,-1.0708,-1.0783,-1.1409,-1.2261,-1.228,-1.2305,-1.2305,-1.2305,-1.2305,-1.2245,-1.1962,-1.1657,-1.1346,-1.1062,-1.0791,-1.0609,-1.0609,-1.0609,-1.0609,-1.0609,-1.0609,-1.0609,-1.0609,-1.0609,-1.0609,-1.0609,-1.0609,-1.0609,-1.0609,-1.0609,-1.0609,-1.0609,-1.0609,-1.0609,-1.0609,-1.0609,-1.0609,-1.0609,-1.0609,-1.0609,-1.0609,-0.9817,-0.8597,-0.685,-0.5897,-0.5311,-0.5113,-0.5294,-0.5232,-0.4909,-0.4899,-0.4821,-0.4698,-0.4563,-0.4842,-0.5483,-0.4828,-0.4883,0.0,0.0,0.759,0.7295,0.0,0.0,0.0,0.0,0.0,0.0,0.0,0.0,0.0,0.0,0.0,0.0,0.0,0.0,0.0,0.0,0.0,0.0,0.0,0.0,0.0,0.0,0.0,0.0,0.0,0.0,0.0,-0.2553,-0.3413,-0.4339,-0.5487,-0.5975,-0.577,-0.6122,-0.63,-0.63,-0.63,-0.63,-0.63,-0.63,-0.63,-0.6338,-0.7003,-0.748,-0.7897,-0.9229,-0.9978,-1.0396,-1.1391,-1.1793,-1.1793,-1.1793,-1.2015,-1.2305,-1.2305,-1.2305,-1.2305,-1.2305,-1.2305,-1.2211,-1.1724,-1.1493,-1.1306,-1.0858,-1.0667,-1.0609,-1.0609,-1.0609,-1.0609,-1.0609,-1.0609,-1.0609,-1.0609,-1.0609,-1.0609,-1.0609,-1.0609,-1.0609,-1.0609,-1.0609,-1.0609,-1.0609,-1.0609,-1.0609,-1.0609,-1.0609,-1.038,-0.9802,-1.0253,-1.0136,-0.8983,-0.807,-0.7323,-0.6736,-0.5881,-0.5371,-0.53,-0.5365,-0.5283,-0.5032,-0.495,-0.4828,-0.4705,-0.5017,-0.5273,-0.5501,-0.5769,-0.5751,0.7689,0.7743,0.0,0.7467,0.7393,0.0,0.7036,0.0,0.0,0.0,0.0,0.0,0.0,0.0,0.0,0.0,0.0,0.0,0.0,0.0,0.0,0.0,0.0,0.0,0.0,0.0,0.0,0.0,0.0,0.0,0.0,0.0,-0.4202,-0.5493,-0.6304,-0.658,-0.6303,-0.63,-0.63,-0.63,-0.63,-0.63,-0.63,-0.63,-0.63,-0.6354,-0.7236,-0.7886,-0.8461,-1.0021,-1.0929,-1.1409,-1.2058,-1.2305,-1.2305,-1.2305,-1.2305,-1.2305,-1.2305,-1.2305,-1.2305,-1.2305,-1.2305,-1.2191,-1.1586,-1.1406,-1.1286,-1.0754,-1.0609,-1.0609,-1.0609,-1.0609,-1.0609,-1.0609,-1.0609,-1.0609,-1.0609,-1.0609,-1.0609,-1.0609,-1.0609,-1.0609,-1.0609,-1.0609,-1.0609,-1.0609,-1.0609,-1.0609,-1.0609,-1.0333,-0.9913,-0.9354,-0.9524,-0.9224,-0.8091,-0.7762,-0.7356,-0.6736,-0.617,-0.5719,-0.5412,-0.5324,-0.5359,-0.5492,-0.5312,-0.5314,-0.5489,-0.5764,-0.6032,-0.6289,-0.6502,-0.6555]},{"header":{"parameterUnit":"m.s-1","parameterCategory":1,"la1":30.6,"la2":29.2853,"lo1":-89.7004,"lo2":-87.6739,"dy":0.0162,"dx":0.0183,"nx":112,"ny":82,"refTime":"2025-01-11T06:00:00:Z","depth":0,"parameterNumber":3,"parameterNumberName":"V-component_of_WINDS"},"data":[0.0,0.0,0.0,0.0,0.0,0.0,0.0,0.0,0.0,0.0,0.0,0.0,0.0,0.0,0.0,0.0,0.0,0.0,0.0,0.0,0.0,0.0,0.0,0.0,0.0,0.0,0.0,0.0,0.0,0.0,0.0,0.0,0.0,0.0,0.0,0.0,0.0,0.0,0.0,0.0,0.0,0.0,0.0,0.0,0.0,0.0,0.0,0.0,0.0,0.0,0.0,0.0,0.0,0.0,0.0,0.0,0.0,0.0,0.0,0.0,0.0,0.0,0.0,0.0,0.0,0.0,0.0,0.0,0.0,0.0,0.0,0.0,0.0,0.0,0.0,0.0,0.0,0.0,0.0,0.0,0.0,0.0,0.0,0.0,0.0,0.0,0.0,0.0,0.0,0.0,0.0,2.5703,2.5683,2.5664,2.561,2.5604,2.5551,2.5433,0.0,0.0,0.0,0.0,0.0,0.0,0.0,0.0,0.0,0.0,0.0,0.0,0.0,0.0,0.0,0.0,0.0,0.0,0.0,0.0,0.0,0.0,0.0,0.0,0.0,0.0,0.0,0.0,0.0,0.0,0.0,0.0,0.0,0.0,0.0,0.0,0.0,0.0,0.0,0.0,0.0,0.0,0.0,0.0,0.0,0.0,0.0,0.0,0.0,0.0,0.0,0.0,0.0,0.0,0.0,0.0,0.0,0.0,0.0,0.0,0.0,0.0,0.0,0.0,0.0,0.0,0.0,0.0,0.0,0.0,0.0,0.0,0.0,0.0,0.0,0.0,0.0,0.0,0.0,0.0,0.0,0.0,0.0,0.0,0.0,0.0,0.0,0.0,0.0,0.0,0.0,0.0,0.0,0.0,0.0,0.0,0.0,0.0,0.0,0.0,0.0,0.0,0.0,0.0,2.5703,2.5703,2.5658,2.5637,2.5683,2.5634,2.5597,2.5565,0.0,0.0,0.0,0.0,0.0,0.0,0.0,0.0,0.0,0.0,0.0,0.0,0.0,0.0,0.0,0.0,0.0,0.0,0.0,0.0,0.0,0.0,0.0,0.0,0.0,0.0,0.0,0.0,0.0,0.0,0.0,0.0,0.0,0.0,0.0,0.0,0.0,0.0,0.0,0.0,0.0,0.0,0.0,0.0,0.0,0.0,0.0,0.0,0.0,0.0,0.0,0.0,0.0,0.0,0.0,0.0,0.0,0.0,0.0,0.0,0.0,0.0,0.0,0.0,0.0,0.0,0.0,0.0,0.0,0.0,0.0,0.0,0.0,0.0,0.0,0.0,0.0,0.0,0.0,0.0,0.0,0.0,0.0,0.0,0.0,0.0,0.0,0.0,0.0,0.0,0.0,0.0,0.0,0.0,0.0,0.0,0.0,0.0,0.0,0.0,0.0,0.0,0.0,2.5657,2.5657,2.5657,2.5658,2.5661,2.5703,2.5662,2.5636,2.5602,2.5547,0.0,0.0,0.0,0.0,0.0,0.0,0.0,0.0,0.0,0.0,0.0,0.0,0.0,0.0,0.0,0.0,0.0,0.0,0.0,0.0,0.0,0.0,0.0,0.0,0.0,0.0,0.0,0.0,0.0,0.0,0.0,0.0,0.0,0.0,0.0,0.0,0.0,0.0,0.0,0.0,0.0,0.0,0.0,0.0,0.0,0.0,0.0,0.0,0.0,0.0,0.0,0.0,0.0,0.0,0.0,0.0,0.0,0.0,0.0,0.0,0.0,0.0,0.0,0.0,0.0,0.0,0.0,0.0,0.0,0.0,0.0,0.0,0.0,0.0,0.0,0.0,0.0,0.0,0.0,0.0,0.0,0.0,0.0,0.0,0.0,0.0,0.0,0.0,0.0,0.0,0.0,0.0,0.0,0.0,0.0,0.0,0.0,0.0,0.0,0.0,0.0,0.0,2.5566,2.5561,2.5599,2.5633,2.5661,2.5703,2.5703,2.5682,2.5632,2.5611,0.0,0.0,0.0,0.0,0.0,0.0,0.0,0.0,0.0,0.0,0.0,0.0,0.0,0.0,0.0,0.0,0.0,0.0,0.0,0.0,0.0,0.0,0.0,0.0,0.0,0.0,0.0,0.0,0.0,0.0,0.0,0.0,0.0,0.0,0.0,0.0,0.0,0.0,0.0,0.0,0.0,0.0,0.0,0.0,0.0,0.0,0.0,0.0,0.0,0.0,0.0,0.0,0.0,0.0,0.0,0.0,0.0,0.0,0.0,0.0,0.0,0.0,0.0,0.0,0.0,0.0,0.0,0.0,0.0,0.0,0.0,0.0,0.0,0.0,0.0,0.0,0.0,0.0,0.0,0.0,0.0,0.0,0.0,0.0,0.0,0.0,0.0,0.0,0.0,0.0,0.0,0.0,0.0,0.0,0.0,0.0,0.0,0.0,0.0,0.0,0.0,0.0,2.5497,2.5464,2.5594,2.5551,2.5562,2.5683,2.5703,2.5703,2.5683,2.5683,0.0,0.0,0.0,0.0,0.0,0.0,0.0,0.0,0.0,0.0,0.0,0.0,0.0,0.0,0.0,0.0,0.0,0.0,0.0,0.0,0.0,0.0,0.0,0.0,0.0,0.0,0.0,0.0,0.0,0.0,0.0,0.0,0.0,0.0,0.0,0.0,0.0,0.0,0.0,0.0,0.0,0.0,0.0,0.0,0.0,0.0,0.0,0.0,0.0,0.0,0.0,0.0,0.0,0.0,0.0,0.0,0.0,0.0,0.0,0.0,0.0,0.0,0.0,0.0,0.0,0.0,0.0,0.0,0.0,0.0,0.0,0.0,0.0,0.0,0.0,0.0,0.0,0.0,0.0,0.0,0.0,0.0,0.0,0.0,0.0,0.0,0.0,0.0,0.0,0.0,0.0,0.0,0.0,0.0,0.0,0.0,0.0,0.0,0.0,0.0,0.0,0.0,2.5464,2.5436,0.0,2.5554,2.5601,2.5683,2.5703,2.5703,2.5703,0.0,0.0,0.0,0.0,0.0,0.0,0.0,0.0,0.0,0.0,0.0,0.0,0.0,0.0,0.0,0.0,0.0,0.0,0.0,0.0,0.0,0.0,0.0,0.0,0.0,0.0,0.0,0.0,0.0,0.0,0.0,0.0,0.0,0.0,0.0,0.0,0.0,0.0,0.0,0.0,0.0,0.0,0.0,0.0,0.0,0.0,0.0,0.0,0.0,0.0,0.0,0.0,0.0,0.0,0.0,0.0,0.0,0.0,0.0,0.0,0.0,0.0,0.0,0.0,0.0,0.0,0.0,0.0,0.0,0.0,0.0,0.0,0.0,0.0,0.0,0.0,0.0,0.0,0.0,0.0,0.0,0.0,0.0,0.0,0.0,0.0,0.0,0.0,0.0,0.0,0.0,0.0,0.0,0.0,0.0,0.0,0.0,0.0,0.0,0.0,0.0,0.0,2.5461,2.5402,2.54,0.0,2.5536,2.5599,2.5661,2.5683,2.5703,2.5703,0.0,0.0,0.0,0.0,0.0,0.0,0.0,0.0,0.0,0.0,0.0,0.0,0.0,0.0,0.0,0.0,0.0,0.0,0.0,0.0,0.0,0.0,0.0,0.0,0.0,0.0,0.0,0.0,0.0,0.0,0.0,0.0,0.0,0.0,0.0,0.0,0.0,0.0,0.0,0.0,0.0,0.0,0.0,0.0,0.0,0.0,0.0,0.0,0.0,0.0,0.0,0.0,0.0,0.0,0.0,0.0,0.0,0.0,0.0,0.0,0.0,0.0,0.0,0.0,0.0,0.0,0.0,0.0,0.0,0.0,0.0,0.0,0.0,0.0,0.0,0.0,0.0,0.0,0.0,0.0,0.0,0.0,0.0,0.0,0.0,0.0,0.0,0.0,0.0,0.0,0.0,0.0,0.0,0.0,0.0,0.0,0.0,0.0,0.0,0.0,0.0,0.0,2.5424,2.537,2.5357,2.542,2.5468,2.5534,2.5599,2.566,2.5703,0.0,0.0,0.0,0.0,0.0,0.0,0.0,0.0,0.0,0.0,0.0,0.0,0.0,0.0,0.0,0.0,0.0,0.0,0.0,0.0,0.0,0.0,0.0,0.0,0.0,0.0,0.0,0.0,0.0,0.0,0.0,0.0,0.0,0.0,0.0,0.0,0.0,0.0,0.0,0.0,0.0,0.0,0.0,0.0,0.0,0.0,0.0,0.0,0.0,0.0,0.0,0.0,0.0,0.0,0.0,0.0,0.0,0.0,0.0,0.0,0.0,0.0,0.0,0.0,0.0,0.0,0.0,0.0,0.0,0.0,0.0,0.0,0.0,0.0,0.0,0.0,0.0,0.0,0.0,0.0,0.0,0.0,0.0,0.0,0.0,0.0,0.0,0.0,0.0,0.0,0.0,0.0,0.0,0.0,0.0,0.0,0.0,0.0,0.0,0.0,0.0,0.0,0.0,0.0,2.6793,2.6918,2.6376,2.6334,2.6139,2.5635,2.5629,2.5658,2.5703,0.0,0.0,0.0,0.0,0.0,0.0,0.0,0.0,0.0,0.0,0.0,0.0,0.0,0.0,0.0,0.0,0.0,0.0,0.0,0.0,0.0,0.0,0.0,0.0,0.0,0.0,0.0,0.0,0.0,0.0,0.0,0.0,0.0,0.0,0.0,0.0,0.0,0.0,0.0,0.0,0.0,0.0,0.0,0.0,0.0,0.0,0.0,0.0,0.0,0.0,0.0,0.0,0.0,0.0,0.0,0.0,0.0,0.0,0.0,0.0,0.0,0.0,0.0,0.0,0.0,0.0,0.0,0.0,0.0,0.0,0.0,0.0,0.0,0.0,0.0,0.0,0.0,0.0,0.0,0.0,0.0,0.0,0.0,0.0,0.0,0.0,0.0,0.0,0.0,0.0,0.0,0.0,0.0,0.0,0.0,0.0,0.0,0.0,0.0,0.0,0.0,0.0,2.6668,2.74,2.7575,2.6757,2.6687,2.6373,2.558,2.5565,2.5628,2.566,0.0,0.0,0.0,0.0,0.0,0.0,0.0,0.0,0.0,0.0,0.0,0.0,0.0,0.0,0.0,0.0,0.0,0.0,0.0,0.0,0.0,0.0,0.0,0.0,0.0,0.0,0.0,0.0,0.0,0.0,0.0,0.0,0.0,0.0,0.0,0.0,0.0,0.0,0.0,0.0,0.0,0.0,0.0,0.0,0.0,0.0,0.0,0.0,0.0,0.0,0.0,0.0,0.0,0.0,0.0,0.0,0.0,0.0,0.0,0.0,0.0,0.0,0.0,0.0,0.0,0.0,0.0,0.0,0.0,0.0,0.0,0.0,0.0,0.0,0.0,0.0,0.0,0.0,0.0,0.0,0.0,0.0,0.0,0.0,0.0,0.0,0.0,0.0,0.0,0.0,0.0,0.0,0.0,0.0,0.0,0.0,0.0,0.0,0.0,0.0,0.0,0.0,2.6747,2.7544,2.7777,2.6813,2.6774,2.6434,2.5487,2.5501,2.5574,2.5597,0.0,0.0,0.0,0.0,0.0,0.0,0.0,0.0,0.0,0.0,0.0,0.0,0.0,0.0,0.0,0.0,0.0,0.0,0.0,0.0,0.0,0.0,0.0,0.0,0.0,0.0,0.0,0.0,0.0,0.0,0.0,0.0,0.0,0.0,0.0,0.0,0.0,0.0,0.0,0.0,0.0,0.0,0.0,0.0,0.0,0.0,0.0,0.0,0.0,0.0,0.0,0.0,0.0,0.0,0.0,0.0,0.0,0.0,0.0,0.0,2.7839,0.0,0.0,0.0,0.0,0.0,0.0,0.0,0.0,0.0,0.0,0.0,0.0,0.0,0.0,0.0,0.0,0.0,0.0,0.0,0.0,0.0,0.0,0.0,0.0,0.0,0.0,0.0,0.0,0.0,0.0,0.0,0.0,0.0,0.0,0.0,0.0,0.0,0.0,0.0,0.0,0.0,2.7622,2.8945,2.9291,2.7777,2.7647,2.7029,2.5539,2.5428,2.5475,2.5526,0.0,0.0,0.0,0.0,0.0,0.0,0.0,0.0,0.0,0.0,0.0,0.0,0.0,0.0,0.0,0.0,0.0,0.0,0.0,0.0,0.0,0.0,0.0,0.0,0.0,0.0,0.0,0.0,0.0,0.0,0.0,0.0,0.0,0.0,0.0,0.0,0.0,0.0,0.0,0.0,0.0,0.0,0.0,0.0,0.0,0.0,0.0,0.0,0.0,0.0,0.0,0.0,0.0,0.0,0.0,0.0,0.0,0.0,0.0,0.0,0.0,2.8883,0.0,0.0,0.0,0.0,0.0,0.0,0.0,0.0,0.0,0.0,0.0,0.0,0.0,0.0,0.0,0.0,0.0,0.0,0.0,0.0,0.0,0.0,0.0,0.0,0.0,0.0,0.0,0.0,0.0,0.0,0.0,0.0,0.0,0.0,0.0,0.0,0.0,0.0,0.0,0.0,2.7909,2.9368,2.9907,2.8604,2.8124,2.7382,2.6097,2.5614,2.5411,2.5452,2.5099,0.0,0.0,0.0,0.0,0.0,0.0,0.0,0.0,0.0,0.0,0.0,0.0,0.0,0.0,0.0,0.0,0.0,0.0,0.0,0.0,0.0,0.0,0.0,0.0,0.0,0.0,0.0,0.0,0.0,0.0,0.0,0.0,0.0,0.0,0.0,0.0,0.0,0.0,0.0,0.0,0.0,0.0,0.0,0.0,0.0,0.0,0.0,0.0,0.0,0.0,0.0,0.0,0.0,3.2559,3.2637,3.2637,3.2637,3.2715,3.2773,3.1172,3.1211,3.2344,0.0,0.0,0.0,0.0,0.0,0.0,0.0,0.0,0.0,0.0,0.0,0.0,0.0,0.0,0.0,0.0,0.0,0.0,0.0,0.0,0.0,0.0,0.0,0.0,0.0,3.1246,3.1625,0.0,0.0,0.0,0.0,0.0,0.0,0.0,0.0,0.0,0.0,0.0,0.0,2.8118,2.9445,3.008,2.9184,2.8376,2.7546,2.6676,2.585,2.5379,2.5374,2.4764,2.4388,0.0,0.0,0.0,0.0,0.0,0.0,0.0,0.0,0.0,0.0,0.0,0.0,0.0,0.0,0.0,0.0,0.0,0.0,0.0,0.0,0.0,0.0,0.0,0.0,0.0,0.0,0.0,0.0,0.0,0.0,0.0,0.0,2.8027,2.8857,0.0,0.0,0.0,0.0,0.0,0.0,0.0,0.0,0.0,0.0,0.0,0.0,0.0,0.0,3.2871,3.3008,3.3125,3.3242,3.4004,3.4375,3.4375,3.4375,3.4785,3.5449,3.4453,0.0,3.3223,3.3125,0.0,0.0,0.0,0.0,0.0,0.0,0.0,0.0,0.0,0.0,0.0,0.0,0.0,0.0,0.0,0.0,0.0,0.0,0.0,0.0,0.0,0.0,3.2949,3.2777,3.2888,3.2919,0.0,3.0754,2.9246,2.9023,0.0,0.0,0.0,0.0,0.0,0.0,0.0,0.0,2.8937,2.9791,3.008,2.9184,2.8376,2.7546,2.6676,2.5806,2.5313,2.5313,2.5209,2.5153,2.5142,2.439,0.0,0.0,0.0,0.0,0.0,0.0,0.0,0.0,0.0,0.0,0.0,0.0,0.0,0.0,0.0,0.0,0.0,0.0,0.0,0.0,0.0,0.0,0.0,0.0,0.0,0.0,0.0,0.0,0.0,2.8756,2.9445,2.9791,3.0352,3.0487,0.0,0.0,0.0,0.0,0.0,0.0,0.0,0.0,0.0,3.3574,3.3613,3.4004,3.4844,3.4863,3.4863,3.4863,3.5254,3.543,3.543,3.543,3.5644,3.6016,3.6113,3.5937,3.5527,3.4531,3.4121,3.4082,0.0,0.0,0.0,0.0,3.3301,3.2969,3.3555,3.3203,0.0,0.0,0.0,0.0,0.0,0.0,0.0,0.0,0.0,0.0,0.0,0.0,0.0,3.3994,3.427,3.4522,3.4471,3.3194,3.178,0.0,3.0763,3.0399,2.8922,0.0,0.0,0.0,0.0,0.0,2.989,3.0599,3.0791,2.9926,2.9085,2.8412,2.8047,2.6791,2.6019,2.6019,2.5577,2.5305,2.5305,2.4964,2.4774,0.0,0.0,0.0,0.0,0.0,0.0,0.0,0.0,0.0,0.0,0.0,0.0,0.0,0.0,0.0,0.0,0.0,0.0,0.0,0.0,0.0,0.0,0.0,0.0,0.0,0.0,0.0,0.0,3.0698,3.1291,3.1077,3.2351,3.2765,0.0,0.0,0.0,0.0,0.0,0.0,3.4394,3.4394,3.4805,3.5664,3.5703,3.6016,3.666,3.668,3.6543,3.6328,3.6328,3.6211,3.5996,3.5996,3.6113,3.6367,3.7012,3.7422,3.7519,3.5996,3.5508,3.5605,3.4746,3.4531,3.4805,3.5469,3.5156,3.457,3.5879,3.5625,3.4629,3.4199,0.0,3.3496,3.2246,0.0,0.0,0.0,0.0,3.3747,3.3938,3.4416,3.4855,3.4834,3.5204,3.5571,3.5571,3.502,3.4106,0.0,3.2678,3.2362,3.0411,0.0,0.0,0.0,0.0,3.1695,3.0846,3.1291,3.1368,3.05,2.9621,2.9107,2.9107,2.7777,2.6928,2.6928,2.6118,2.5635,2.5635,2.5421,2.5305,0.0,0.0,0.0,0.0,0.0,0.0,0.0,0.0,0.0,0.0,0.0,0.0,0.0,0.0,0.0,0.0,0.0,0.0,0.0,0.0,0.0,0.0,0.0,0.0,0.0,0.0,0.0,0.0,0.0,0.0,3.2872,3.3644,0.0,0.0,0.0,0.0,3.5638,3.5797,3.623,3.7051,3.7109,3.75,3.8379,3.8398,3.8418,3.8476,3.8476,3.8047,3.7226,3.7226,3.6797,3.5996,3.5996,3.6445,3.7246,3.7285,3.7773,3.8457,3.7559,3.7656,3.832,3.7441,3.7617,3.834,3.8398,3.7851,3.7129,3.7207,3.6113,3.4824,3.5605,3.5312,3.4629,3.4531,3.3965,0.0,0.0,3.4562,3.4702,3.5406,3.5566,3.5537,3.5464,3.5489,3.5514,3.5514,3.5468,3.5157,0.0,3.3436,3.2859,3.2737,0.0,3.2766,3.2721,3.2776,3.2545,3.1734,3.1676,3.1368,3.05,2.9621,2.9107,2.9107,2.8316,2.7835,2.7835,2.7024,2.6522,2.6522,2.5731,2.5305,2.5305,2.5305,0.0,0.0,0.0,0.0,0.0,0.0,0.0,0.0,0.0,0.0,0.0,0.0,0.0,0.0,0.0,0.0,0.0,0.0,0.0,0.0,0.0,0.0,0.0,0.0,0.0,0.0,0.0,0.0,3.4665,3.5952,0.0,0.0,3.636,3.6964,3.6754,3.7321,3.7812,3.8125,3.8144,3.8535,3.9414,3.8887,3.8867,3.9434,3.8887,3.8437,3.8144,3.8144,3.7969,3.7676,3.7676,3.7832,3.8164,3.873,3.9141,3.9414,3.9101,3.8828,3.8574,3.8262,3.832,3.8535,3.7969,3.7578,3.7226,3.666,3.6055,3.5586,3.5898,3.5781,3.5547,3.5547,3.5312,3.5137,3.5449,3.5499,3.5507,3.5762,3.5716,3.5595,3.5563,3.5525,3.55,3.55,3.55,3.5404,3.51,3.4792,3.4407,3.3837,3.4199,3.4388,3.3817,3.4218,3.4273,3.3414,3.2814,3.216,3.133,3.0464,2.9945,2.9945,2.9162,2.8665,2.8665,2.7893,2.7198,2.6618,2.6291,2.5865,2.5305,2.5305,2.5305,0.0,0.0,0.0,0.0,0.0,0.0,0.0,0.0,0.0,0.0,0.0,0.0,0.0,0.0,0.0,0.0,0.0,0.0,0.0,0.0,0.0,0.0,0.0,0.0,0.0,0.0,3.6791,3.653,3.7851,3.8331,3.721,3.8191,3.8913,3.8955,3.9276,3.9609,3.9863,3.9629,3.9746,4.0312,3.9785,3.9746,4.0332,3.9766,3.9336,3.9043,3.9043,3.8887,3.8594,3.8594,3.8769,3.9062,3.9648,4.0078,4.0332,4.0332,4.0,3.9453,3.9141,3.9219,3.9375,3.8496,3.7988,3.7578,3.6406,3.5996,3.5996,3.5996,3.5996,3.6055,3.6348,3.623,3.6055,3.6367,3.6157,3.5836,3.5836,3.569,3.5574,3.5574,3.5528,3.55,3.55,3.55,3.55,3.55,3.55,3.5327,3.4737,3.5119,3.5308,3.4737,3.5138,3.5196,3.4318,3.3702,3.3026,3.2199,3.1599,3.1135,3.0865,3.0314,2.9855,2.9563,2.8758,2.8047,2.7467,2.6909,2.6329,2.575,2.5731,2.5885,2.6176,0.0,0.0,0.0,0.0,0.0,0.0,0.0,0.0,0.0,0.0,0.0,0.0,0.0,0.0,0.0,0.0,0.0,0.0,0.0,0.0,0.0,0.0,0.0,3.5854,3.7883,3.9195,3.8518,3.9251,3.9827,3.9813,3.9937,4.0684,4.2324,4.1719,4.1621,4.2402,4.168,4.123,4.123,4.1211,4.1191,4.1191,4.1191,4.0781,3.9941,3.9941,3.9492,3.8672,3.8672,3.9141,3.9941,3.9941,4.043,4.1191,4.1191,4.1191,4.1113,4.0273,4.0469,4.1094,4.0215,3.9336,3.832,3.6621,3.6016,3.6016,3.6055,3.6055,3.6191,3.707,3.6758,3.625,3.707,3.6551,3.5725,3.5705,3.563,3.5538,3.5538,3.5538,3.5538,3.5538,3.5519,3.55,3.55,3.55,3.55,3.55,3.55,3.55,3.55,3.55,0.0,3.4356,3.4225,3.3875,3.3026,3.291,3.2583,3.1792,3.1715,3.1349,3.05,2.9621,2.9127,2.9107,2.7544,2.6676,2.6637,2.6637,2.7063,2.7893,0.0,0.0,0.0,0.0,0.0,0.0,0.0,0.0,0.0,0.0,0.0,0.0,0.0,0.0,0.0,0.0,0.0,0.0,0.0,0.0,0.0,0.0,3.9491,3.8612,3.9689,4.0726,4.1153,4.2034,4.2595,4.2595,4.2636,4.2851,4.3301,4.3144,4.3105,4.332,4.2539,4.207,4.207,4.1504,4.1191,4.1191,4.1191,4.1074,4.084,4.084,4.0723,4.0488,4.0488,4.0625,4.084,4.084,4.0976,4.1191,4.1191,4.1191,4.1172,4.0937,4.0996,4.1094,4.0215,3.8945,3.7598,3.7109,3.6523,3.6211,3.7461,3.7461,3.7109,3.7988,3.8086,3.7793,3.7402,3.6981,3.651,3.5862,3.6034,3.6365,3.6365,3.6365,3.6365,3.6365,3.5904,3.55,3.55,3.55,3.55,3.55,3.55,3.55,3.55,3.55,0.0,3.5176,3.4584,3.4106,3.3875,3.3279,3.2814,3.2583,3.2045,3.1599,0.0,3.0522,2.9756,2.9127,2.8665,2.8143,2.7546,2.7546,2.7662,0.0,0.0,0.0,0.0,0.0,0.0,0.0,0.0,0.0,0.0,0.0,0.0,0.0,0.0,0.0,0.0,0.0,0.0,0.0,0.0,0.0,0.0,4.0771,4.1855,4.1375,4.1758,4.2297,4.2818,4.3377,4.3691,4.3691,4.3691,4.3848,4.4219,4.3906,4.3867,4.4238,4.3418,4.2773,4.2402,4.1953,4.1543,4.1191,4.1191,4.1191,4.1191,4.1191,4.1191,4.1191,4.1191,4.1191,0.0,4.1191,4.1191,4.1191,4.1191,4.1191,0.0,0.0,0.0,0.0,0.0,3.9023,3.7832,3.7832,3.7519,3.7266,3.8262,3.8262,3.8008,3.8887,3.8887,3.8574,3.8437,3.7977,3.7423,3.6913,3.7024,3.7234,3.7234,3.7234,3.7138,3.6773,3.6327,3.5904,3.5577,0.0,0.0,3.55,3.55,3.55,3.55,3.55,3.55,3.55,3.5061,3.4737,3.4737,3.4292,3.3833,3.349,3.3029,0.0,0.0,0.0,3.0388,2.9146,2.9107,0.0,0.0,0.0,0.0,0.0,0.0,0.0,0.0,2.9608,2.9492,0.0,0.0,0.0,0.0,0.0,0.0,0.0,0.0,0.0,0.0,0.0,0.0,0.0,0.0,0.0,0.0,4.3173,4.3811,4.3965,4.3936,4.389,4.3847,4.3926,4.3984,4.3984,4.3984,4.4316,4.5098,4.4433,4.4336,4.5117,0.0,0.0,0.0,0.0,4.2207,4.1484,4.1387,4.1348,4.1328,4.123,4.1191,4.1191,4.1191,4.1191,4.1191,4.1191,4.1191,4.1191,4.1191,4.1191,4.1191,4.1191,4.1191,4.1094,4.0215,3.9414,3.875,3.875,0.0,0.0,3.8828,3.8828,3.8906,3.9785,3.9512,3.9023,3.9707,3.9205,3.8412,3.8334,3.8227,3.8142,3.8142,3.8142,3.793,3.7157,3.6927,3.6638,3.5923,3.5692,3.5635,3.5635,3.5558,3.55,3.55,3.55,3.55,3.55,3.55,3.55,3.55,0.0,0.0,3.4414,3.426,3.3529,3.1948,3.1753,3.1044,2.9588,2.9531,2.9531,2.9531,3.0291,3.1058,3.1833,3.2545,3.2949,3.2987,3.0624,3.0355,0.0,0.0,0.0,0.0,0.0,0.0,0.0,0.0,0.0,0.0,0.0,0.0,0.0,0.0,0.0,4.3192,4.4132,4.498,4.5703,4.5781,4.5526,4.4824,4.5371,4.5801,4.5801,4.5801,4.5879,4.6035,4.5898,4.5879,4.6035,4.5215,0.0,4.4492,4.3828,4.3379,4.3223,4.2519,4.2168,4.2168,0.0,0.0,4.1191,4.1191,4.1191,4.1191,4.1191,4.1191,4.1191,4.1191,4.1191,4.1191,4.1191,4.1191,4.1094,4.0215,3.9785,3.9648,3.9648,3.9199,3.8828,4.0234,4.0215,3.9805,4.0684,4.082,0.0,4.0059,3.9635,3.9192,3.847,3.8673,3.905,3.905,3.905,3.8992,3.8838,3.8238,3.77,3.7546,3.6946,3.6465,3.6465,3.5923,3.55,3.55,3.55,3.55,3.55,3.55,3.55,3.55,3.55,3.5423,3.5253,3.4603,3.376,3.2737,3.2064,3.1833,3.2141,3.216,3.216,3.216,3.2333,3.2506,3.2679,3.2814,3.3256,3.3914,3.2721,3.2352,0.0,0.0,0.0,0.0,0.0,0.0,0.0,0.0,0.0,0.0,0.0,4.1603,0.0,0.0,4.3938,4.4817,4.5331,4.5801,4.623,4.6308,4.6133,4.5703,4.6035,4.6308,4.6308,4.6308,4.6308,4.6308,4.6308,4.6308,4.6308,4.5898,4.5449,4.5019,4.457,4.4141,4.3691,4.3262,4.2832,4.2402,4.1992,4.1582,4.1191,4.1191,4.1191,4.1191,4.1191,4.1191,4.1191,4.1191,4.1191,4.1191,4.1191,4.1191,4.1152,4.0703,4.0547,4.0547,4.0547,4.0273,4.0039,4.0918,4.0918,4.0625,4.1074,4.1191,4.1113,4.0664,4.043,4.0209,3.9761,3.9823,3.9998,3.9998,3.9947,3.9785,3.9396,3.8954,3.853,3.8084,3.7642,3.735,3.735,3.6657,3.5962,3.5558,3.55,3.55,3.55,3.55,3.55,3.55,3.55,3.55,3.55,3.4699,3.401,3.3587,3.2756,3.2487,3.2872,3.2891,3.2891,3.2891,3.3337,3.3548,3.3548,3.3987,3.4426,3.4853,3.4811,3.458,0.0,0.0,0.0,0.0,0.0,0.0,0.0,0.0,4.0644,4.1575,4.2461,4.3269,4.3847,4.4668,4.5488,4.6191,4.6308,4.6308,4.6308,4.6308,4.6308,4.6308,4.6308,4.6308,4.6308,4.6308,4.6308,4.6308,4.6308,4.6308,4.6308,4.6308,4.5976,4.5273,4.5254,4.4922,4.4219,4.4043,4.3516,4.2656,4.248,4.1973,4.1191,4.1191,4.1191,4.1191,4.1191,4.1191,4.1191,4.1016,4.1055,4.1172,4.1016,4.1055,4.1191,4.1191,4.1191,4.1191,4.1191,4.1191,4.1191,4.1191,4.1191,4.1191,4.1191,4.1191,4.1191,4.1191,4.1104,4.0996,4.0996,4.0853,4.0724,4.0724,4.0649,4.0384,3.9713,3.9571,3.9363,3.8634,3.8354,3.8257,3.8257,3.7388,3.6484,3.5827,3.5596,3.55,3.55,3.55,3.55,3.55,3.55,3.55,3.55,3.4699,3.426,3.4433,3.3625,3.3237,3.341,3.341,3.341,3.341,3.4083,3.4452,3.4452,3.5157,3.5577,3.575,3.6404,3.6346,3.7969,3.7796,0.0,4.0929,4.0463,4.0437,0.0,0.0,4.3413,4.4354,4.5253,4.5644,4.498,4.5566,4.6191,4.6289,4.6308,4.6308,4.6308,4.6308,4.6308,4.6308,4.6308,4.6308,4.6308,4.6308,4.6308,4.6308,4.6308,4.6308,4.6308,4.6308,4.6269,4.6152,4.6152,4.6113,4.6016,4.5234,4.4414,4.3555,4.2773,4.1973,4.1191,4.1191,4.1191,4.1191,4.1191,4.1191,4.1133,4.0351,4.0508,4.1113,4.0351,4.0527,4.1191,4.1191,4.1191,4.1191,4.1191,4.1191,4.1191,4.1191,4.1191,4.1191,4.1191,4.1191,4.1191,4.1191,4.1104,4.0996,4.0996,4.0881,4.0781,4.0781,4.0771,4.0733,4.0587,4.0538,4.0475,4.0257,3.9646,3.9146,3.9146,3.7796,3.6677,3.658,3.5962,3.55,3.55,3.55,3.55,3.55,3.55,3.55,3.55,3.4699,3.4529,3.5311,3.4545,3.4391,3.5173,3.5212,3.5212,3.5212,3.5308,3.5346,3.5346,3.5442,3.5865,3.658,3.6657,3.6657,4.0143,0.0,0.0,0.0,4.2684,4.3041,4.4952,4.4885,4.4665,4.5566,4.6055,4.6191,4.582,4.6055,4.6308,0.0,4.6308,4.6308,4.6308,4.6308,4.6308,4.6308,4.6308,4.6308,4.6308,4.6308,4.6308,4.6308,4.6308,4.6308,4.6308,4.6308,4.6308,4.6308,4.6308,4.6308,4.6308,4.5937,4.5312,4.4453,4.4082,4.3203,4.1894,4.1894,4.1641,4.1191,4.1191,4.1191,4.1172,4.0801,4.0879,4.1152,4.0801,4.0879,4.1191,4.1191,4.1191,4.1191,4.1191,4.1191,4.1191,4.1191,4.1191,4.1191,4.1191,4.1191,4.1191,4.1191,4.1151,4.1126,4.1126,4.1021,4.0917,4.0917,4.086,4.0785,4.0757,4.0764,4.075,4.0693,4.0377,4.013,4.0164,3.9126,3.8118,3.7635,3.6386,3.55,3.55,3.55,3.55,3.55,3.55,3.55,3.55,3.5176,3.5119,3.5481,3.5157,3.5119,3.5481,3.55,3.55,3.55,3.55,3.5731,3.6192,3.6192,3.6638,3.7465,3.7988,3.82,4.159,0.0,0.0,4.367,4.4323,4.4904,4.5212,4.5328,4.5547,4.6172,4.6308,4.6308,4.6308,4.6308,0.0,4.6308,4.6308,4.6308,4.6308,4.6308,4.6308,4.6308,4.6308,4.6308,4.6308,4.6308,4.6308,4.6308,4.6308,4.6308,4.6308,4.6308,4.6308,4.6308,4.6308,4.6308,4.6308,4.6308,4.5859,4.5,4.5,4.4219,4.2754,4.2519,4.1953,4.1191,4.1191,4.1191,4.1191,4.1191,4.1191,4.1191,4.1191,4.1191,4.1191,4.1191,4.1191,4.1191,4.1191,4.1191,4.1191,4.1191,4.1191,4.1191,4.1191,4.1191,4.1191,4.1191,4.1191,4.1191,4.1191,4.1128,4.1054,4.1054,4.0988,4.0907,4.0864,4.0859,4.0832,4.0805,4.0769,4.0735,4.0785,4.0057,3.9185,3.8353,3.7105,3.6086,3.5571,3.55,3.55,3.55,3.55,3.5596,3.5808,3.5635,3.5596,3.5827,3.5615,3.55,3.55,3.55,3.5596,3.5827,3.5827,3.6231,3.7061,3.7061,3.7507,3.8373,3.9011,3.9415,0.0,0.0,4.2585,4.4401,4.4884,4.5131,4.6053,4.6269,4.6269,4.6289,4.6308,4.6308,4.6308,4.6308,4.6308,4.6308,4.6308,4.6308,4.6308,4.6308,4.6308,4.6308,4.6308,4.6308,0.0,4.6308,4.6308,4.6308,4.6308,4.6308,4.6308,4.6308,4.6308,4.6308,4.6308,4.6308,4.6308,4.6308,4.5859,4.5,4.5,4.4531,4.3633,4.2793,4.1953,4.1191,4.1191,4.1191,4.1191,4.1191,4.1191,4.1191,4.1191,4.1191,4.1191,4.1191,4.1191,4.1191,4.1191,4.1191,4.1191,4.1191,4.1191,4.1191,4.1191,4.1191,4.1191,4.1191,4.1191,4.1191,4.1191,4.1191,4.1191,4.1191,4.1191,4.115,4.1023,4.0993,4.0957,4.0838,4.0795,4.0795,4.0797,4.014,3.9303,3.8427,3.8259,3.7566,3.5724,3.55,3.55,3.55,3.55,3.5827,3.66,3.5942,3.5827,3.6619,3.5923,3.55,3.55,3.55,3.5865,3.6657,3.6657,3.7081,3.7969,3.7969,3.8411,3.9261,3.9281,3.9727,0.0,0.0,4.4302,4.5522,4.5836,4.5915,4.623,4.6308,4.6308,4.6308,4.6308,4.6308,4.6308,4.6308,4.6308,4.6308,4.6308,4.6308,4.6308,4.6308,4.6308,4.6308,4.6308,0.0,0.0,0.0,0.0,4.6308,4.6308,4.6308,4.6308,4.6308,4.6308,4.6308,4.6308,4.6308,4.6308,4.6308,4.6152,4.5859,4.5273,4.4531,4.3672,4.2793,4.1953,4.1191,4.1191,4.1191,4.1191,4.1191,4.1191,4.1191,4.1191,4.1191,4.1191,4.1191,4.1191,4.1191,4.1191,4.1191,4.1191,4.1191,4.1191,4.1191,4.1191,4.1191,4.1191,4.1191,4.1191,4.1191,4.1191,4.1191,4.1191,4.1191,4.1191,4.1191,4.1149,4.1128,4.1126,4.1078,4.0993,4.0959,4.1052,4.0778,4.0227,3.9353,3.8206,3.7401,3.7298,3.7292,3.7266,3.7175,3.7157,3.7273,3.7546,3.6773,3.6657,3.7507,3.6254,3.6,3.71,3.6096,3.6154,3.7546,3.6984,3.7407,3.8857,3.8857,3.9281,4.0092,4.0092,4.0246,0.0,4.4547,4.5215,4.6074,4.6308,4.6308,4.6308,4.6308,4.6308,4.6308,4.6308,4.6308,4.6308,4.6308,4.6308,4.6308,4.6308,4.6308,4.6308,4.6308,4.6308,4.6308,4.6308,0.0,0.0,0.0,0.0,4.6308,4.6308,4.6308,4.6308,4.6308,4.6308,4.6308,4.6308,4.6308,4.6308,4.6308,4.6308,4.6289,4.5723,4.5019,4.4121,4.3262,4.2402,4.1601,4.1328,4.1191,4.1191,4.1191,4.1191,4.1191,4.1191,4.1191,4.1191,4.1191,4.1191,4.1191,4.1191,4.1191,4.1191,4.1191,4.1191,4.1191,4.1191,4.1191,4.1191,4.1191,4.1191,4.1191,4.1191,4.1191,4.1191,4.1191,4.1191,4.1191,4.1191,4.1191,4.1191,4.1191,4.1128,4.1103,4.1191,4.0874,4.0512,4.028,3.8972,3.808,3.8222,3.8217,3.8164,3.809,3.8031,3.8123,3.8434,3.768,3.7546,3.8411,3.7157,3.6888,3.7969,3.6965,3.7042,3.8434,3.7911,3.8315,3.9727,3.9727,3.9996,4.0496,4.0496,4.0496,4.451,4.5039,4.5273,4.6094,4.6308,4.6308,4.6308,4.6308,4.6308,4.6308,4.6308,4.6308,0.0,0.0,4.6308,4.6367,4.6328,4.6328,4.6367,4.6328,4.6308,0.0,0.0,0.0,0.0,0.0,0.0,4.6308,0.0,4.6308,4.6308,4.6308,4.6308,4.6308,4.6308,4.6308,4.6308,4.6308,4.6308,4.6308,4.6308,4.584,4.4961,4.4141,4.3262,4.2363,4.1582,4.123,4.1191,4.1191,4.1191,4.1191,4.1191,4.1191,4.1191,4.1191,4.1191,4.1191,4.1191,4.1191,4.1191,4.1191,4.1191,4.1191,4.1191,4.1191,4.1191,4.1191,4.1191,4.1191,4.1191,4.1191,4.1191,4.1191,4.1191,4.1191,4.1191,4.1191,4.1191,4.1191,4.1191,4.1191,4.1191,4.0508,4.0254,4.1074,4.0508,3.9602,3.8572,3.8382,3.8334,3.8338,3.8212,3.8461,3.9284,3.8569,3.8434,3.93,3.8507,3.8046,3.8123,3.8046,3.843,3.9338,3.9319,3.9708,4.0496,4.0496,4.0496,4.0496,4.0496,4.0496,4.4707,4.5469,4.6016,4.623,4.6308,4.6308,4.6308,4.6308,4.6308,4.6308,4.6308,4.6308,0.0,0.0,0.0,4.7168,4.6719,0.0,4.7187,4.6719,0.0,0.0,0.0,4.6308,4.6308,4.6308,0.0,0.0,4.6308,4.6308,4.6308,4.6308,4.6308,4.6308,4.6308,4.6308,4.6308,4.6308,4.6308,4.6308,4.6308,4.584,4.498,4.4766,4.3848,4.2383,4.2187,4.1758,4.1191,4.1191,4.1191,4.1191,4.1191,4.1191,4.1191,4.1191,4.1191,4.1191,4.1191,4.1191,4.1191,4.1191,4.1191,4.1191,4.1191,4.1191,4.1191,4.1191,4.1191,4.1191,4.1191,4.1191,4.1191,4.1191,4.1191,4.1191,4.1191,4.1191,4.1191,4.1191,4.1191,4.1191,4.1191,4.1016,4.0937,4.1172,4.1016,4.0739,4.0364,4.03,4.0238,4.009,4.0026,4.0066,4.0181,3.9434,3.9319,4.015,3.8819,3.8565,3.98,3.8661,3.8684,4.0169,3.9608,3.9708,4.0496,4.0496,4.0496,4.0496,4.0496,4.0496,4.5332,4.5937,4.6308,4.6308,4.6308,4.6308,4.6308,4.6308,4.6308,4.6308,4.6308,0.0,0.0,0.0,0.0,0.0,0.0,0.0,4.8105,4.7422,4.6875,0.0,4.6523,0.0,4.6308,4.6308,4.6308,0.0,4.6308,4.6308,4.6308,4.6308,4.6308,4.6308,4.6308,4.6308,4.6308,4.6308,4.6308,4.6308,4.6308,4.6035,4.5547,4.4785,4.3906,4.293,0.0,4.1621,4.1191,4.1191,4.1191,4.1191,4.1191,4.1191,4.1191,4.1191,4.1191,4.1191,4.1191,4.1191,4.1191,4.1191,4.1191,4.1191,4.1191,4.1191,4.1191,4.1191,4.1191,4.1191,4.1191,4.1191,4.1191,4.1191,4.1191,4.1191,4.1191,4.1191,4.1191,4.1191,4.1191,4.1191,4.1191,4.1191,4.1191,4.1191,4.1191,4.1171,4.1103,4.1048,4.0938,4.0757,4.0735,4.0673,4.05,4.0147,4.0084,4.0481,3.9627,3.9511,4.0458,3.9608,3.9531,4.0477,4.0054,4.0054,4.0496,4.0496,4.0496,4.0496,4.0496,4.0496,4.5918,4.6211,4.6308,4.6308,4.6308,4.6308,4.6308,4.6308,4.6308,4.6308,0.0,0.0,4.6308,0.0,4.75,4.7734,0.0,4.8808,4.9043,4.8223,4.7598,4.7598,4.6836,4.6308,4.6308,4.6308,4.6308,4.6308,4.6308,4.6308,4.6308,4.6308,4.6308,4.6308,4.6308,4.6308,4.6308,4.6308,4.6308,4.6308,4.6308,4.6308,4.625,4.4726,4.3926,4.3613,0.0,0.0,4.1191,4.1191,4.1191,4.1191,4.1191,4.1191,4.1191,4.1191,4.1191,4.1191,4.1191,4.1191,4.1191,4.1191,4.1191,4.1191,4.1191,4.1191,4.1191,4.1191,4.1191,4.1191,4.1191,4.1191,4.1191,4.1191,4.1191,4.1191,4.1191,4.1191,4.1191,4.1191,4.1191,4.1191,4.1191,4.1191,4.1191,4.1191,4.1191,4.1191,4.1191,4.1103,4.0986,4.0848,4.0838,4.0754,4.0565,4.0633,4.0659,4.0526,4.0512,4.0496,4.0496,4.0496,4.0496,4.0496,4.0496,4.0496,4.0496,4.0496,4.0496,4.0496,4.0496,4.0496,4.5176,4.5742,4.6308,4.6308,4.6308,4.6308,4.6308,4.6308,0.0,0.0,0.0,4.6308,4.6308,0.0,0.0,4.8437,0.0,0.0,0.0,0.0,4.7598,0.0,0.0,0.0,0.0,0.0,0.0,0.0,0.0,0.0,4.6308,4.6308,4.6308,4.6308,4.6308,4.6308,4.6308,4.6308,4.6308,4.6308,4.6308,4.6308,4.6289,4.5996,4.5058,4.3672,0.0,0.0,4.1191,4.1191,4.1191,4.1191,4.1191,4.1191,4.1191,4.1191,4.1191,4.1191,4.1191,4.1191,4.1191,4.1191,4.1191,4.1191,4.1191,4.1191,4.1191,4.1191,4.1191,4.1191,4.1191,4.1191,4.1191,4.1191,4.1191,4.1191,4.1191,4.1191,4.1191,4.1191,4.1191,4.1191,4.1191,4.1191,4.1191,4.1191,4.1191,4.1191,4.1191,4.1171,4.1106,4.0987,4.0962,4.0908,4.0753,4.0718,4.0686,4.0678,4.0563,4.0496,4.0496,4.0496,4.0496,4.0496,4.0496,4.0496,4.0496,4.0496,4.0496,4.0496,4.0496,4.0496,4.5547,4.5976,4.6308,4.6308,4.6308,4.6308,4.6308,0.0,0.0,0.0,0.0,4.6308,4.6308,0.0,0.0,0.0,0.0,0.0,0.0,0.0,0.0,0.0,0.0,0.0,0.0,0.0,0.0,0.0,0.0,0.0,4.6308,4.6308,4.6308,4.6308,4.6308,4.6308,4.6308,4.6308,4.6308,4.6308,4.6308,4.6308,4.6289,4.582,4.4922,4.3672,4.3223,0.0,4.1191,4.1191,4.1191,4.1191,4.1191,4.1191,4.1191,4.1191,4.1191,4.1191,4.1191,4.1191,4.1191,4.1191,4.1191,4.1191,4.1191,4.1191,4.1191,4.1191,4.1191,4.1191,4.1191,4.1191,4.1191,4.1191,4.1191,4.1191,4.1191,4.1191,4.1191,4.1191,4.1191,4.1191,4.1191,4.1191,4.1191,4.1191,4.1191,4.1191,4.1191,4.1191,4.115,4.1001,4.1056,4.1023,4.0813,4.0822,4.0839,4.0757,4.0693,4.0654,4.0654,4.0654,4.0654,4.0654,4.0654,4.0654,4.0654,4.0654,4.0654,4.0654,4.0654,4.0654,4.5898,4.6152,4.6308,4.6308,4.6308,4.6308,4.6308,4.6308,0.0,0.0,0.0,0.0,0.0,0.0,0.0,0.0,0.0,0.0,0.0,0.0,0.0,0.0,0.0,0.0,0.0,0.0,0.0,0.0,0.0,0.0,4.6308,4.6308,4.6308,4.6308,4.6308,4.6308,4.6308,4.6308,4.6308,4.6308,4.6308,4.6308,4.6269,4.5391,4.4512,4.3652,4.2773,0.0,0.0,4.1191,4.1191,4.1191,4.1191,4.1191,4.1191,4.1191,4.1191,4.1191,4.1191,4.1191,4.1191,4.1191,4.1191,4.1191,4.1191,4.1191,4.1191,4.1191,4.1191,4.1191,4.1191,4.1191,4.1191,4.1191,4.1191,4.1191,4.1191,4.1191,4.1191,4.1191,4.1191,4.1191,4.1191,4.1191,4.1191,4.1191,4.1191,4.1191,4.1191,4.1035,4.0877,4.078,4.1031,4.1106,4.091,4.0957,4.0956,4.0855,4.0811,4.0799,4.0799,4.0799,4.0799,4.0799,4.0799,4.0799,4.0799,4.0799,4.0799,4.0799,4.0799,4.0799,4.5312,4.5703,4.6308,4.6308,4.6308,4.6308,4.6308,0.0,0.0,0.0,0.0,4.6308,4.6308,0.0,0.0,0.0,0.0,0.0,0.0,0.0,0.0,0.0,0.0,0.0,0.0,0.0,0.0,0.0,0.0,0.0,0.0,4.6308,4.6308,4.6308,4.6308,4.6308,4.6308,4.6308,4.6308,4.6308,4.6308,4.6308,4.6269,4.5391,4.4512,4.3652,4.2773,0.0,0.0,4.1191,4.1191,4.1191,4.1191,4.1191,4.1191,4.1191,4.1191,4.1191,4.1191,4.1191,4.1191,4.1191,4.1191,4.1191,4.1191,4.1191,4.1191,4.1191,4.1191,4.1191,4.1191,4.1191,4.1191,4.1191,4.1191,4.1191,4.1191,4.1191,4.1191,4.1191,4.1191,4.1191,4.1191,4.1191,4.1191,4.1191,4.1191,4.1191,4.1191,4.0508,4.0019,4.0,4.0723,4.1191,4.1171,4.1056,4.0993,4.0988,4.0867,4.0799,4.0799,4.0799,4.0799,4.0799,4.0799,4.0799,4.0799,4.0799,4.0799,4.0799,4.0799,4.0799,4.5586,4.6035,4.6308,4.6308,4.6308,4.6308,4.6308,0.0,0.0,4.6308,4.6308,4.6308,4.6308,4.6308,0.0,0.0,0.0,0.0,0.0,0.0,0.0,0.0,0.0,0.0,0.0,0.0,0.0,0.0,0.0,0.0,0.0,4.6308,4.6308,4.6308,4.6308,4.6308,4.6308,4.6308,4.6308,4.6308,4.6308,4.6035,4.5508,4.5156,4.4238,4.2891,4.2558,0.0,0.0,4.1191,4.1191,4.1191,4.1191,4.1191,4.1191,4.1191,4.1191,4.1191,4.1191,4.1191,4.1191,4.1191,4.1191,4.1191,4.1191,4.1191,4.1191,4.1191,4.1191,4.1191,4.1191,4.1191,4.1191,4.1191,4.1191,4.1191,4.1191,4.1191,4.1191,4.1191,4.1191,4.1191,4.1191,4.1191,4.1191,4.1191,4.1191,4.1016,4.0488,4.0117,3.9707,3.918,3.9434,3.9648,3.9648,4.0076,4.0345,4.0345,4.0784,4.1049,4.1049,4.1049,4.1049,4.1049,4.1049,4.1049,4.1049,4.1049,4.1049,4.1049,4.1049,4.1049,4.5898,4.6308,4.6308,4.6308,4.6308,4.6308,0.0,0.0,4.6308,4.6308,4.6308,4.6308,4.6308,4.6308,4.6308,0.0,0.0,0.0,0.0,0.0,0.0,0.0,0.0,0.0,0.0,0.0,0.0,0.0,0.0,0.0,0.0,4.6308,4.6308,4.6308,4.6308,4.6308,4.6308,4.6308,4.6308,4.6308,4.6035,4.5586,4.498,4.4473,4.3555,4.2383,0.0,0.0,0.0,4.1191,4.1191,4.1191,4.1191,4.1191,4.1191,4.1191,4.1191,4.1191,4.1191,4.1191,4.1191,4.1191,4.1191,4.1191,4.1191,4.1191,4.1191,4.1191,4.1191,4.1191,4.1191,4.1191,4.1191,4.1191,4.1191,4.1191,4.1191,4.1191,4.1191,4.1191,4.1191,4.1191,4.1191,4.0996,4.082,4.082,4.0605,4.0215,3.959,3.9297,3.8906,3.8281,3.7988,3.8047,3.8555,3.9394,3.9902,3.9902,4.0723,4.1191,4.1191,4.1191,4.1191,4.1191,4.1191,4.1191,4.1191,4.1191,4.1191,4.1191,4.1191,4.1191,4.6055,4.6308,4.6308,4.6308,4.6308,4.6308,0.0,4.6308,4.6308,4.6308,4.6308,4.6308,4.6308,4.6308,4.6308,4.6308,0.0,0.0,0.0,0.0,0.0,0.0,0.0,0.0,0.0,0.0,0.0,0.0,0.0,0.0,0.0,4.6308,4.6308,4.6308,4.6308,4.6308,4.6308,4.6308,4.6308,4.6289,4.543,4.5019,4.4941,4.3203,4.2422,0.0,0.0,0.0,0.0,4.1191,4.1191,4.1191,4.1191,4.1191,4.1191,4.1191,4.1191,4.1191,4.1191,4.1191,4.1191,4.1191,4.1191,4.1191,4.1191,4.1191,4.1191,4.1191,4.1191,4.1191,4.1191,4.1191,4.1191,4.1191,4.1191,4.1191,4.1191,4.1191,4.1191,4.1191,4.1191,4.1191,4.1191,4.0488,3.9902,3.9902,3.918,3.8613,3.8613,3.7851,3.7324,3.7305,3.6543,3.6738,3.8457,3.9394,3.9902,3.9902,4.0723,4.1191,4.1191,4.1191,4.1191,4.1191,4.1191,4.1191,4.1191,4.1191,4.1191,4.1191,4.1191,4.1191,4.4453,4.5391,4.6152,4.5566,4.5859,4.6133,4.5547,4.5879,4.6133,4.5527,4.5898,4.6308,4.6308,4.6308,4.6504,4.709,4.7187,0.0,0.0,0.0,0.0,0.0,0.0,0.0,0.0,0.0,0.0,0.0,0.0,0.0,0.0,4.6308,4.6308,4.6308,4.6308,4.6308,4.6308,4.6308,4.5996,4.541,4.5137,4.4375,4.3203,4.2656,0.0,0.0,0.0,0.0,0.0,4.1191,4.1191,4.1191,4.1191,4.1191,4.1191,4.1191,4.1191,4.1191,4.1191,4.0801,4.0312,4.0312,4.0312,4.0312,4.0312,4.0723,4.1191,4.1191,4.1191,4.1191,4.1191,4.1191,4.1191,4.1191,4.1191,4.1191,4.1191,4.1191,4.1191,4.1191,4.1191,4.1191,4.1191,4.0488,3.9902,3.9902,3.916,3.8379,3.7793,3.7461,3.707,3.6484,3.6152,3.6211,3.6777,3.7617,3.8125,3.8125,3.8945,3.9687,4.0293,4.0312,4.0586,4.1191,4.1191,4.0918,4.0312,4.0918,4.1191,4.1191,4.1191,4.1191,0.0,4.498,4.5762,4.5547,4.5644,4.5664,4.5117,4.543,4.5664,4.5117,4.5683,4.6308,4.6308,4.6308,4.6484,4.7012,4.7109,0.0,0.0,0.0,0.0,0.0,0.0,0.0,0.0,0.0,0.0,0.0,0.0,0.0,0.0,0.0,4.6308,4.6308,4.6308,4.6308,4.6308,4.5976,4.5547,4.498,4.4336,4.3457,4.2383,4.209,0.0,0.0,0.0,0.0,0.0,4.1191,4.1191,4.1191,4.1191,4.1191,4.1152,4.082,4.0703,4.0664,4.0332,3.9863,3.9414,3.9414,3.9414,3.9414,3.9414,4.0254,4.1191,4.1191,4.1191,4.1191,4.1191,4.1191,4.1191,4.1191,4.1191,4.1191,4.1191,4.1191,4.1094,4.0762,4.0703,4.0605,4.0273,3.9492,3.8926,3.8926,3.8184,3.7422,3.6875,3.6816,3.6601,3.6055,3.5996,3.5996,3.5996,3.6797,3.7305,3.7305,3.8125,3.8848,3.9394,3.9414,3.9668,4.0215,4.0215,3.9941,3.9414,3.9941,4.0215,4.0215,4.0215,4.0391,0.0,4.4863,4.5098,4.584,4.5469,4.4883,4.4824,4.4863,0.0,4.4902,4.5605,4.623,4.6289,4.6308,4.6328,4.6387,4.6387,0.0,0.0,0.0,0.0,0.0,0.0,0.0,0.0,0.0,0.0,0.0,0.0,0.0,0.0,0.0,4.6308,4.6308,4.623,4.6211,4.6211,4.5332,4.4883,4.4805,4.3164,4.2363,4.2285,4.1543,0.0,0.0,0.0,0.0,0.0,4.1133,4.1113,4.1094,4.1035,4.1016,4.0918,4.0117,3.9805,3.9687,3.8887,3.8555,3.8516,3.8516,3.8516,3.8516,3.8574,3.9726,4.1035,4.1094,4.1055,4.1035,4.1094,4.1055,4.1016,4.1016,4.1055,4.1113,4.1113,4.1113,4.0879,4.0059,3.9844,3.9551,3.873,3.7871,3.7305,3.7305,3.6562,3.5996,3.5996,3.5996,3.5996,3.5996,3.5996,3.5996,3.5996,3.6738,3.7207,3.7207,3.7969,3.8437,3.8496,3.8516,3.8535,3.8594,3.8535,3.8535,3.8594,3.8535,3.8535,3.8594,3.8594,3.9023,4.2734,0.0,4.3887,4.3437,4.3652,4.3828,0.0,4.3535,4.4004,0.0,0.0,0.0,0.0,4.6308,0.0,0.0,0.0,0.0,0.0,0.0,0.0,0.0,0.0,0.0,0.0,0.0,0.0,0.0,0.0,0.0,0.0,0.0,4.6308,4.6308,4.5644,4.5312,4.5312,4.4433,4.3672,4.3008,4.2598,4.207,4.1484,4.1289,0.0,0.0,0.0,0.0,4.1152,4.0488,4.0215,4.0137,3.9473,3.9219,3.9199,3.8984,3.8906,3.8887,3.8672,3.8164,3.7617,3.7617,3.7617,3.7734,3.8398,3.8887,3.9355,4.0019,3.9726,3.9355,4.0039,3.9707,3.9219,3.9219,3.9726,4.0215,4.0215,4.0215,4.0137,3.9941,3.9355,3.8848,3.8633,3.7871,3.7305,3.7305,3.6562,3.5996,3.5996,3.5996,3.5996,3.5996,3.5996,3.5996,3.5996,3.6191,3.6309,3.6309,3.6504,3.6914,3.7578,3.7617,3.793,3.8594,3.7949,3.793,3.8594,3.793,3.7949,3.8594,3.8594,3.8711,4.1738,4.2461,4.3183,4.3516,4.3359,4.3086,4.3008,0.0,0.0,0.0,0.0,0.0,0.0,0.0,0.0,0.0,0.0,0.0,0.0,0.0,0.0,0.0,0.0,0.0,0.0,0.0,0.0,0.0,0.0,0.0,0.0,0.0,4.6113,4.5723,4.4863,4.4609,4.5,4.373,4.2871,4.2402,4.2031,4.1621,4.1191,4.1191,4.1191,0.0,0.0,0.0,4.0566,4.0098,3.9668,3.9258,3.8789,3.8594,3.8555,3.8144,3.8008,3.7949,3.7559,3.7109,3.6699,3.6699,3.6699,3.6797,3.7266,3.7402,3.7676,3.8945,3.8965,3.8711,3.918,3.8945,3.8594,3.8594,3.8965,3.9297,3.9297,3.9297,3.9199,3.8789,3.832,3.7871,3.748,3.7012,3.6699,3.6699,3.6309,3.5996,3.5996,3.5996,3.5996,3.5996,3.5996,3.5996,3.5996,3.5996,3.5996,3.5996,3.5996,3.6211,3.668,3.6699,3.6934,3.7402,3.6934,3.6934,3.7402,3.6934,3.6953,3.7402,3.7402,3.7617,4.1348,4.1875,4.2734,4.4082,4.3301,4.2402,4.3144,0.0,0.0,0.0,0.0,0.0,0.0,0.0,0.0,0.0,0.0,0.0,0.0,0.0,0.0,0.0,0.0,0.0,0.0,0.0,0.0,0.0,0.0,0.0,0.0,0.0,0.0,4.5039,4.4141,4.3984,4.4609,4.3027,4.2226,4.2207,4.1523,4.1191,4.1191,4.1191,4.1133,0.0,0.0,0.0,3.9687,3.9551,3.9062,3.8398,3.8262,3.8203,3.8105,3.7363,3.7109,3.6992,3.6269,3.5996,3.5996,3.5996,3.5996,3.5996,3.5996,3.5996,3.6309,3.7793,3.8203,3.8223,3.8379,3.8301,3.8203,3.8203,3.8301,3.8398,3.8398,3.8398,3.8184,3.7441,3.7187,3.6875,3.6133,3.5996,3.5996,3.5996,3.5996,3.5996,3.5996,3.5996,3.5996,3.5996,3.5996,3.5976,3.5976,3.5976,3.5975,3.5954,3.5976,3.5996,3.5996,3.5996,3.5996,3.5996,3.5996,3.5996,3.5976,3.5996,3.5996,3.5976,3.5996,3.6406,4.2031,4.2305,4.2305,4.1894,4.1582,4.1426,0.0,0.0,0.0,0.0,0.0,0.0,0.0,0.0,0.0,0.0,0.0,0.0,0.0,0.0,0.0,0.0,0.0,0.0,0.0,0.0,0.0,0.0,0.0,0.0,0.0,0.0,0.0,4.5039,4.4141,4.3418,4.2793,4.1855,4.1387,4.1387,4.1269,4.1191,4.1191,4.1191,4.0801,0.0,0.0,3.9609,3.873,3.8008,3.7617,3.7422,3.6699,3.6406,3.6387,3.625,3.6191,3.6172,3.6055,3.5996,3.5996,3.5996,3.5996,3.5996,3.5996,3.5996,3.6055,3.6328,3.6406,3.6562,3.7305,3.6953,3.6406,3.6406,3.6953,3.75,3.75,3.75,3.7461,3.7324,3.6699,3.6152,3.6016,3.5996,3.5996,3.5996,3.5996,3.5996,3.5996,3.5948,3.5943,3.5996,3.5948,3.5912,3.5912,3.5912,3.5877,3.5747,3.5905,3.5996,3.5996,3.5996,3.5996,3.5996,3.5996,3.5974,3.5912,3.5974,3.5973,3.5913,3.5974,3.6074,4.1641,4.1758,4.1777,4.1836,4.1855,4.1973,0.0,0.0,0.0,0.0,0.0,0.0,0.0,0.0,0.0,0.0,0.0,0.0,0.0,0.0,0.0,0.0,0.0,0.0,0.0,0.0,0.0,0.0,0.0,0.0,0.0,0.0,0.0,0.0,4.3906,4.3066,4.1758,4.1387,4.1191,4.1191,4.1191,4.1191,4.1172,4.0703,4.0273,3.9863,0.0,3.8691,3.7871,3.7461,3.7012,3.6562,3.6152,3.5996,3.5996,3.5996,3.5996,3.5996,3.5996,3.5996,3.5996,3.5996,3.5996,3.5996,3.5996,3.5996,3.5996,3.5996,3.5996,3.6094,3.6484,3.6309,3.5996,3.5996,3.6309,3.6601,3.6601,3.6601,3.6601,3.6601,3.6269,3.5996,3.5996,3.5996,3.5996,3.5996,3.5996,3.5995,3.5948,3.5914,3.5881,3.584,3.5817,3.5798,3.5798,3.5798,3.5765,3.5708,3.5791,3.587,3.5946,3.5947,3.5947,3.5947,3.5947,3.5892,3.5798,3.5828,3.5827,3.5798,3.5829,3.5871,4.1426,4.1484,4.1621,4.2246,0.0,0.0,0.0,0.0,0.0,0.0,0.0,0.0,0.0,0.0,0.0,0.0,0.0,0.0,0.0,0.0,0.0,0.0,0.0,0.0,0.0,0.0,0.0,0.0,0.0,0.0,0.0,0.0,0.0,0.0,4.3691,4.2891,4.1211,4.1191,4.1191,4.1191,4.1191,4.1094,4.0879,4.0195,3.9687,3.9258,3.8594,3.7793,3.6992,3.6992,3.6601,3.5996,3.5996,3.5996,3.5996,3.5996,3.5996,3.5996,3.5996,3.5996,3.5996,3.5996,3.5996,3.5996,3.5996,3.5996,3.5996,3.5996,3.5996,3.5996,3.5996,3.5996,3.5996,3.5996,3.5996,3.5996,3.5996,3.5996,3.5996,3.5996,3.5996,3.5996,3.5996,3.5996,3.5996,3.5975,3.5975,3.5949,3.5852,3.5833,3.581,3.571,3.5686,3.5593,3.5381,3.5166,3.5035,3.5035,3.5081,3.5154,3.5262,3.5264,3.5264,3.5264,3.5478,3.5408,3.5093,3.5309,3.5307,3.5093,3.5329,3.5469,4.2109,4.2305,4.2324,4.2383,0.0,0.0,0.0,0.0,0.0,0.0,0.0,0.0,0.0,0.0,0.0,0.0,0.0,0.0,0.0,0.0,0.0,0.0,0.0,0.0,0.0,0.0,0.0,0.0,0.0,0.0,0.0,0.0,0.0,0.0,4.3691,4.2891,4.1211,4.1191,4.1191,4.1191,4.1191,4.0781,3.998,3.9922,3.9023,3.748,3.7422,3.6894,3.6094,3.6094,3.6055,3.5996,3.5996,3.5996,3.5996,3.5996,3.5996,3.5996,3.5996,3.5996,3.5996,3.5996,3.5996,3.5996,3.5996,3.5996,3.5996,3.5996,3.5996,3.5996,3.5996,3.5996,3.5996,3.5996,3.5996,3.5996,3.5996,3.5996,3.5996,3.5996,3.5996,3.5996,3.5996,3.5996,3.5975,3.5913,3.5907,3.585,3.5725,3.565,3.5641,3.5696,3.5638,3.5277,3.4466,3.3594,3.3102,3.3102,3.3281,3.3387,3.3393,3.3393,3.3393,3.3393,3.4187,3.4164,3.3281,3.4157,3.4135,3.3302,3.4178,3.4588,4.1562,4.2012,0.0,0.0,0.0,0.0,0.0,0.0,0.0,0.0,0.0,0.0,0.0,0.0,0.0,0.0,0.0,0.0,0.0,0.0,0.0,0.0,0.0,0.0,0.0,0.0,0.0,0.0,0.0,0.0,0.0,0.0,0.0,0.0,4.3164,4.2344,4.1211,4.1191,4.1191,4.1191,4.1191,4.0742,3.9883,3.9336,3.8437,3.7266,3.6738,3.6309,3.5996,3.5996,3.5996,3.5996,3.5996,3.5996,3.5996,3.5996,3.5996,3.5996,3.5996,3.5996,3.5996,3.5996,3.5996,3.5996,3.5996,3.5996,3.5996,3.5996,3.5996,3.5996,3.5996,3.5996,3.5996,3.5996,3.5996,3.5996,3.5947,3.5943,3.5918,3.5834,3.5807,3.5807,3.5807,3.5807,3.5799,3.5775,3.5789,3.5741,3.5659,3.5621,3.5385,3.4833,3.4257,3.3794,3.3467,3.2659,3.216,3.216,3.2684,3.3057,3.3138,3.3142,3.3142,3.3142,3.345,3.3409,3.2974,3.3337,3.3318,3.2974,3.334,3.3548,4.1582,4.1973,0.0,0.0,0.0,0.0,0.0,0.0,0.0,0.0,0.0,0.0,0.0,0.0,0.0,0.0,0.0,0.0,0.0,0.0,0.0,0.0,0.0,0.0,0.0,0.0,0.0,0.0,0.0,0.0,0.0,0.0,0.0,0.0,4.2715,4.2012,4.1211,4.1191,4.1191,4.1191,4.0918,4.0332,3.9473,3.8867,3.7969,3.6855,3.6269,3.5996,3.5996,3.5996,3.5996,3.5996,3.5996,3.5996,3.5996,3.5996,3.5996,3.5996,3.5996,3.5996,3.5996,3.5974,3.5973,3.5952,3.5927,3.5905,3.5906,3.5952,3.595,3.5926,3.5952,3.5976,3.5996,3.5974,3.5973,3.5948,3.5851,3.5838,3.5807,3.5717,3.5705,3.5705,3.5705,3.5705,3.5695,3.5663,3.5677,3.5635,3.5579,3.5331,3.4811,3.3888,3.3026,3.2526,3.2526,3.1753,3.1291,3.1291,3.1811,3.2156,3.2232,3.2254,3.2254,3.2254,3.2524,3.2472,3.2118,3.2391,3.2372,3.2118,3.2391,3.2573,4.2383,0.0,0.0,0.0,0.0,0.0,0.0,0.0,0.0,0.0,0.0,0.0,0.0,0.0,0.0,0.0,0.0,0.0,0.0,0.0,0.0,0.0,0.0,0.0,0.0,0.0,0.0,0.0,0.0,0.0,0.0,0.0,0.0,0.0,4.2383,4.2012,4.1211,4.1191,4.1191,4.1191,4.0312,3.9434,3.8594,3.8594,3.7637,3.5996,3.5996,3.5996,3.5996,3.5996,3.5996,3.5996,3.5996,3.5996,3.5996,3.5996,3.5996,3.5996,3.5996,3.5996,3.5995,3.5916,3.5901,3.5873,3.5731,3.5705,3.5723,3.5868,3.5803,3.5725,3.5869,3.5948,3.5975,3.5911,3.5901,3.5868,3.5723,3.5703,3.5703,3.5703,3.5703,3.5703,3.5703,3.5703,3.5669,3.5609,3.5589,3.5555,3.5485,3.4718,3.3856,3.2987,3.2179,3.1695,3.1676,3.0885,3.0401,3.0398,3.0398,3.0401,3.0404,3.0404,3.0404,3.0404,3.1253,3.1253,3.0404,3.1272,3.1234,3.0423,3.1291,3.1695,4.0957,0.0,0.0,0.0,0.0,0.0,0.0,0.0,0.0,0.0,0.0,0.0,0.0,0.0,0.0,0.0,0.0,0.0,0.0,0.0,0.0,0.0,0.0,0.0,0.0,0.0,0.0,0.0,0.0,0.0,0.0,0.0,0.0,0.0,4.1855,4.1445,4.1191,4.1191,4.1191,4.1191,4.0312,3.9434,3.8574,3.7969,3.707,3.5996,3.5996,3.5996,3.5996,3.5996,3.5974,3.594,3.594,3.594,3.594,3.594,3.5951,3.5996,3.5996,3.5973,3.5938,3.5907,3.5838,3.5756,3.5713,3.5705,3.571,3.5755,3.5725,3.5712,3.5755,3.5777,3.5788,3.5766,3.5761,3.5738,3.5655,3.563,3.5621,3.5579,3.5556,3.5556,3.5556,3.5556,3.5329,3.4708,3.4625,3.4394,3.3744,3.2949,3.2333,3.2083,3.1291,3.0704,3.0526,3.0263,3.0051,2.9931,2.99,3.0067,3.0395,3.0404,3.0404,3.0404,3.0654,3.0654,3.0404,3.0654,3.0654,3.0404,3.0673,3.0788,0.0,0.0,0.0,0.0,0.0,0.0,0.0,0.0,0.0,0.0,0.0,0.0,0.0,0.0,0.0,0.0,0.0,0.0,0.0,0.0,0.0,0.0,0.0,0.0,0.0,0.0,0.0,0.0,0.0,0.0,0.0,0.0,0.0,0.0,4.1445,4.1191,4.1191,4.1191,4.1191,4.1191,3.9961,3.9101,3.8574,3.7695,3.6816,3.5996,3.5996,3.5996,3.5996,3.5974,3.5942,3.588,3.5841,3.5812,3.5812,3.5812,3.5854,3.5877,3.5877,3.584,3.5827,3.5797,3.5732,3.5657,3.5628,3.5611,3.5623,3.565,3.5631,3.5623,3.5652,3.5648,3.5626,3.5652,3.5665,3.5633,3.5574,3.5559,3.5549,3.5501,3.5215,3.4984,3.4984,3.4696,3.4292,3.376,3.3683,3.3375,3.2526,3.2006,3.1561,3.1215,3.0615,3.0186,3.0013,2.9931,2.9829,2.9713,2.9705,2.9827,3.0114,3.0121,3.0121,3.0121,3.0121,3.0159,3.0248,3.0248,3.0302,3.0404,3.0404,3.0404,0.0,0.0,0.0,0.0,0.0,0.0,0.0,0.0,0.0,0.0,0.0,0.0,0.0,0.0,0.0,0.0,0.0,0.0,0.0,0.0,0.0,0.0,0.0,0.0,0.0,0.0,0.0,0.0,0.0,0.0,0.0,0.0,0.0,0.0,4.1191,4.1191,4.1191,4.1113,4.1074,0.0,3.9316,3.8476,3.8457,3.7578,3.6758,3.5996,3.5996,3.5996,3.5996,3.5938,3.59,3.5871,3.5746,3.5693,3.5693,3.5693,3.5698,3.5705,3.5705,3.57,3.5678,3.5611,3.56,3.5585,3.5512,3.55,3.5515,3.5571,3.5546,3.5518,3.5574,3.5534,3.5459,3.5444,3.5494,3.5493,3.5283,3.5273,3.5282,3.5205,3.4559,3.4031,3.4044,3.3391,3.2856,3.2792,3.2718,3.241,3.1676,3.1568,3.1232,3.046,3.0129,2.9969,2.995,2.9771,2.9661,2.9638,2.9638,2.9638,2.9638,2.9678,2.9705,2.9705,2.9705,2.9784,2.9977,2.9995,3.0129,3.0361,3.0395,3.0404,0.0,0.0,0.0,0.0,0.0,0.0,0.0,0.0,0.0,0.0,0.0,0.0,0.0,0.0,0.0,0.0,0.0,0.0,0.0,0.0,0.0,0.0,0.0,0.0,0.0,0.0,0.0,0.0,0.0,0.0,0.0,0.0,0.0,4.123,4.1191,4.1191,4.1191,4.0527,4.0176,0.0,3.8418,3.7578,3.7559,3.668,3.6172,3.5996,3.5996,3.5996,3.5996,3.5938,3.5838,3.5723,3.5642,3.5614,3.5614,3.5614,3.5655,3.5705,3.5705,3.5673,3.5628,3.5599,3.5568,3.5512,3.5491,3.55,3.5507,3.5528,3.5511,3.551,3.5528,3.5345,3.5019,3.4343,3.4703,3.4833,3.3505,3.3557,3.3664,3.3032,3.2767,3.2708,3.2902,3.279,3.249,3.2026,3.1388,3.0885,3.0692,3.0503,3.0296,3.0105,2.9889,2.9705,2.9533,2.9484,2.9379,2.9152,2.916,2.916,2.916,2.95,2.9705,2.9705,2.9705,2.9726,2.9759,2.9928,3.0024,3.0089,3.0305,3.0404,0.0,0.0,0.0,0.0,0.0,0.0,0.0,0.0,0.0,0.0,0.0,0.0,0.0,0.0,0.0,0.0,0.0,0.0,0.0,0.0,0.0,0.0,0.0,0.0,0.0,0.0,0.0,0.0,0.0,0.0,0.0,4.2871,4.2031,4.123,4.1191,4.1191,4.1191,4.0742,4.0312,3.9883,3.8555,3.748,3.666,3.6211,3.5996,3.5996,3.5996,3.5996,3.5996,3.5859,3.5764,3.5691,3.559,3.5558,3.5558,3.5558,3.5571,3.5599,3.5599,3.53,3.4929,3.4929,3.4908,3.4795,3.4388,3.4542,3.4795,3.4369,3.4253,3.4237,3.4138,3.4018,3.3666,3.2685,3.3387,3.3933,3.2674,3.262,3.2704,3.2278,3.1896,3.1663,3.1813,3.1565,3.1285,3.1113,3.0692,3.0355,3.0238,3.0086,2.9965,2.9869,2.9674,2.9513,2.9417,2.9278,2.9151,2.9011,2.8999,2.8999,2.8999,2.9225,2.9362,2.9362,2.9362,2.9426,2.957,2.975,2.9908,3.0006,3.0289,3.0404,0.0,0.0,0.0,0.0,0.0,0.0,0.0,0.0,0.0,0.0,0.0,0.0,0.0,0.0,0.0,0.0,0.0,0.0,0.0,0.0,0.0,0.0,0.0,0.0,0.0,0.0,0.0,0.0,0.0,0.0,4.3516,4.2656,4.1894,4.1211,4.1191,4.1191,4.1191,4.0898,4.0391,3.9668,3.8633,3.7402,3.5996,3.5996,3.5996,3.5996,3.5996,3.5996,3.5974,3.5784,3.5696,3.5661,3.5549,3.55,3.55,3.55,3.55,3.55,3.55,3.5023,3.4395,3.4241,3.4205,3.4029,3.316,3.3394,3.3811,3.3051,3.2849,3.2793,3.2596,3.2497,3.2191,3.1184,3.1911,3.263,3.1874,3.1798,3.1802,3.1676,3.1148,3.0724,3.0765,3.0333,3.0075,3.0302,3.0323,3.0241,2.9977,2.992,2.9833,2.9665,2.9455,2.933,2.933,2.9128,2.8999,2.8999,2.8999,2.8999,2.8999,2.8999,2.8999,2.8999,2.8999,2.9134,2.9402,2.9607,2.98,3.0006,3.0289,3.0404,0.0,0.0,0.0,0.0,0.0,0.0,0.0,0.0,0.0,0.0,0.0,0.0,0.0,0.0,0.0,0.0,0.0,0.0,0.0,0.0,0.0,0.0,0.0,0.0,0.0,0.0,0.0,0.0,0.0,0.0,4.2617,4.1797,4.1308,4.1191,4.1191,4.1191,4.1191,3.9707,3.8887,3.875,3.7129,3.623,3.5996,3.5996,3.5996,3.5996,3.5996,3.5973,3.5907,3.5764,3.5673,3.5601,3.5522,3.55,3.55,3.55,3.55,3.55,3.55,3.5423,3.5196,3.4452,3.4205,3.4029,3.316,3.2987,3.3016,3.2717,3.2634,3.2588,3.2325,3.2076,3.1692,3.0858,3.0646,3.0469,2.9902,3.0136,3.0253,2.9565,2.9527,2.9667,2.9844,2.9945,3.0013,3.0058,3.0042,2.9973,2.9778,2.9589,2.9478,2.9444,2.9209,2.9044,2.9044,2.9028,2.8999,2.8999,2.8999,2.8999,2.8999,2.8999,2.8999,2.8999,2.8999,2.9134,2.9402,2.9607,2.98,3.0006,3.0289,3.0404,0.0,0.0,0.0,0.0,0.0,0.0,0.0,0.0,0.0,0.0,0.0,0.0,0.0,0.0,0.0,0.0,0.0,0.0,0.0,0.0,0.0,0.0,0.0,0.0,0.0,0.0,0.0,0.0,0.0,4.332,4.2441,4.1641,4.1191,4.1191,4.1191,4.1191,4.1191,3.9961,3.8848,3.7851,3.6601,3.5996,3.5996,3.5996,3.5996,3.5996,3.5996,3.5952,3.5898,3.5759,3.5665,3.5595,3.5531,3.55,3.55,3.55,3.55,3.55,3.55,3.5176,3.4622,3.376,3.3393,3.3044,3.1689,3.1541,3.171,3.1138,3.0976,3.0926,3.0692,3.055,3.0336,2.9822,2.9616,2.9468,2.923,2.936,2.9427,2.9078,2.9095,2.9257,2.9494,2.9612,2.9705,2.9813,2.9833,2.975,2.9551,2.9459,2.9346,2.9181,2.9067,2.8999,2.8999,2.8999,2.8999,2.8999,2.8999,2.8999,2.8999,2.8999,2.8999,2.8999,2.8999,2.905,2.9184,2.9537,2.9756,2.9841,3.0225,3.0135,0.0,0.0,0.0,0.0,0.0,0.0,0.0,0.0,0.0,0.0,0.0,0.0,0.0,0.0,0.0,0.0,0.0,0.0,0.0,0.0,0.0,0.0,0.0,0.0,0.0,0.0,0.0,0.0,0.0,4.3223,4.2148,4.1523,4.1191,4.1191,4.1191,4.1094,4.0879,3.9785,3.8476,3.6953,3.6309,3.5996,3.5996,3.5996,3.5996,3.5996,3.5996,3.5949,3.5841,3.5731,3.5648,3.5563,3.5515,3.55,3.55,3.55,3.55,3.55,3.55,3.5061,3.4385,3.3434,3.2896,3.2294,3.0708,3.0431,3.0525,2.9827,2.9611,2.9575,2.9348,2.9299,2.9246,2.9057,2.8999,2.8999,2.8999,2.8999,2.8999,2.8999,2.8999,2.9084,2.9356,2.9402,2.9454,2.9603,2.9611,2.9542,2.9336,2.9299,2.9214,2.9028,2.8999,2.8999,2.8999,2.8999,2.8999,2.8999,2.8999,2.8999,2.8999,2.8999,2.8999,2.8999,2.8999,2.9021,2.91,2.9284,2.9504,2.978,2.9982,2.9717,0.0,0.0,0.0,0.0,0.0,0.0,0.0,0.0,0.0,0.0,0.0,0.0,0.0,0.0,0.0,0.0,0.0,0.0,0.0,0.0,0.0,0.0,0.0,0.0,0.0,0.0,0.0,0.0,0.0,4.2988,4.1348,4.1211,4.1191,4.1191,4.1191,4.0801,3.998,3.8281,3.6973,3.6074,3.6016,3.5996,3.5996,3.5996,3.5996,3.5996,3.5996,3.5899,3.5712,3.5707,3.5616,3.5494,3.5503,3.55,3.55,3.55,3.55,3.55,3.55,3.5462,3.5242,3.4117,3.3237,3.2381,3.12,3.0346,2.9717,2.9478,2.9428,2.9343,2.9089,2.9028,2.9022,2.9005,2.8999,2.8999,2.8999,2.8999,2.8999,2.8999,2.8999,2.9084,2.9356,2.9402,2.9407,2.9404,2.9428,2.9325,2.905,2.9028,2.9022,2.8999,2.8999,2.8999,2.8999,2.8999,2.8999,2.8999,2.8999,2.8999,2.8999,2.8999,2.8999,2.8999,2.8999,2.9128,2.9382,2.8763,2.8993,2.9972,2.9426,2.9146,0.0,0.0,0.0,0.0,0.0,0.0,0.0,0.0,0.0,0.0,0.0,0.0,0.0,0.0,0.0,0.0,0.0,0.0,0.0,0.0,0.0,0.0,0.0,0.0,0.0,0.0,0.0,0.0,0.0,0.0,4.1269,4.1191,4.1191,4.1191,4.1191,4.0508,3.9082,3.7891,3.6855,3.5996,3.5996,3.5975,3.5942,3.5942,3.5892,3.5804,3.5804,3.5779,3.57,3.5652,3.5571,3.55,3.55,3.55,3.55,3.55,3.55,3.55,3.55,3.5383,3.4997,3.3501,3.2608,3.1826,3.0366,2.9627,2.9244,2.9154,2.9151,2.9123,2.901,2.8999,2.8999,2.8999,2.8999,2.8999,2.8999,2.8999,2.8999,2.8999,2.8999,2.904,2.9128,2.9151,2.9151,2.9151,2.9151,2.9106,2.9017,2.8999,2.8999,2.8999,2.8999,2.8999,2.8999,2.8999,2.8999,2.8999,2.8999,2.8999,2.8999,2.8999,2.8999,2.8999,2.8999,2.8865,2.8563,2.832,2.8265,2.8394,2.8759,2.8406,0.0,0.0,0.0,0.0,0.0,0.0,0.0,0.0,0.0,0.0,0.0,0.0,0.0,0.0,0.0,0.0,0.0,0.0,0.0,0.0,0.0,0.0,0.0,0.0,0.0,0.0,0.0,0.0,0.0,0.0,4.123,4.1191,4.1074,4.0762,4.0488,3.9629,3.8184,3.7305,3.6562,3.5996,3.5975,3.5946,3.5901,3.5845,3.5775,3.5703,3.5671,3.5675,3.5669,3.5626,3.5559,3.55,3.55,3.55,3.55,3.55,3.55,3.549,3.541,3.5242,3.4888,3.3556,3.2536,3.1584,3.0418,2.9575,2.8999,2.8999,2.8999,2.8999,2.8999,2.8999,2.8999,2.8999,2.8999,2.8999,2.8999,2.8999,2.8999,2.8999,2.8999,2.8999,2.8999,2.8999,2.8999,2.8999,2.8999,2.8999,2.8999,2.8999,2.8999,2.8999,2.8999,2.8999,2.8999,2.8999,2.8999,2.8999,2.8999,2.8999,2.8999,2.8999,2.8999,2.8999,2.8999,2.8608,2.7793,2.7722,2.7596,2.7427,2.8096,2.7911,0.0,0.0,0.0,0.0,0.0,0.0,0.0,0.0,0.0,0.0,0.0,0.0,0.0,0.0,0.0,0.0,0.0,0.0,0.0,0.0,0.0,0.0,0.0,0.0,0.0,0.0,0.0,0.0,0.0,4.2051,4.123,4.1191,4.0801,3.9922,3.9043,3.8184,3.7305,3.6445,3.5996,3.5996,3.5921,3.5901,3.5896,3.5758,3.57,3.5691,3.5621,3.5603,3.5603,3.5603,3.5556,3.55,3.55,3.55,3.55,3.55,3.55,3.5453,3.5194,3.5096,3.4994,3.4375,3.3106,3.1764,3.1458,3.0265,2.9023,2.9005,2.8999,2.8999,2.8999,2.8999,2.8999,2.8999,2.8999,2.8999,2.8999,2.8999,2.8999,2.8999,2.8999,2.8999,2.8999,2.8999,2.8999,2.8999,2.8999,2.8999,2.8999,2.8999,2.8999,2.8999,2.8999,2.8999,2.8999,2.8999,2.8999,2.8999,2.8999,2.8999,2.8999,2.8999,2.9005,2.9017,2.9017,2.8421,2.7217,2.6998,2.6983,2.7141,2.7394,2.764,3.7305,0.0,0.0,0.0,0.0,0.0,0.0,0.0,0.0,0.0,0.0,0.0,0.0,0.0,0.0,0.0,0.0,0.0,0.0,0.0,0.0,0.0,0.0,0.0,0.0,0.0,0.0,0.0,4.2754,4.2051,4.123,4.1191,4.0801,3.9922,3.9043,3.8184,3.7305,3.6445,3.5974,3.5938,3.5908,3.5819,3.5672,3.5639,3.5591,3.5544,3.5537,3.5534,3.5534,3.5534,3.5528,3.55,3.55,3.55,3.55,3.55,3.55,3.5453,3.5194,3.4972,3.4655,3.3653,3.2894,3.2146,3.0919,3.0222,2.9745,2.9152,2.8999,2.8999,2.8999,2.8999,2.8999,2.8999,2.8999,2.8999,2.8999,2.8999,2.8999,2.8999,2.8999,2.8999,2.8999,2.8999,2.8999,2.8999,2.8999,2.8999,2.8999,2.8999,2.8999,2.8999,2.8999,2.8999,2.8999,2.8999,2.8999,2.8999,2.8999,2.8999,2.8999,2.8999,2.9089,2.9283,2.9289,2.8671,2.7427,2.7063,2.6458,2.5618,2.5672,2.6084,0.0,0.0,0.0,0.0,0.0,0.0,0.0,0.0,0.0,0.0,0.0,0.0,0.0,0.0,0.0,0.0,0.0,0.0,0.0,0.0,0.0,0.0,0.0,0.0,0.0,0.0,0.0,4.3769,4.2891,4.2051,4.123,4.1191,4.0625,3.9394,3.8867,3.8008,3.6777,3.6228,3.5944,3.5901,3.5812,3.5704,3.5608,3.5566,3.554,3.55,3.55,3.55,3.55,3.55,3.55,3.55,3.55,3.55,3.55,3.55,3.5432,3.5293,3.504,3.473,3.4354,3.3584,3.2994,3.2362,3.1091,3.0467,3.002,2.9225,2.8999,2.8999,2.8999,2.8999,2.8999,2.8999,2.8999,2.8999,2.8999,2.8999,2.8999,2.8999,2.8999,2.8999,2.8999,2.8999,2.8999,2.8999,2.8999,2.8999,2.8999,2.8999,2.8999,2.8999,2.8999,2.8999,2.8999,2.91,2.9173,2.9173,2.9249,2.9241,2.916,2.9249,2.9338,2.9402,2.9474,2.8816,2.7364,2.7053,2.6387,2.5417,2.5126,2.5521,0.0,0.0,0.0,0.0,0.0,0.0,0.0,4.2559,0.0,0.0,0.0,0.0,0.0,0.0,0.0,0.0,0.0,0.0,0.0,0.0,0.0,0.0,0.0,0.0,0.0,4.5137,4.4785,4.3906,4.2949,4.2051,4.123,4.1191,4.0391,3.8652,3.8594,3.7754,3.6016,3.5922,3.5899,3.5874,3.5682,3.56,3.5582,3.5534,3.55,3.55,3.55,3.55,3.55,3.55,3.55,3.55,3.55,3.55,3.55,3.55,3.5323,3.5066,3.4784,3.4491,3.4159,3.3883,3.3323,3.2571,3.1666,3.0895,3.0155,2.9244,2.8999,2.8999,2.8999,2.8999,2.8999,2.8999,2.8999,2.8999,2.8999,2.8999,2.8999,2.8999,2.8999,2.8999,2.8999,2.8999,2.8999,2.8999,2.8999,2.8999,2.8999,2.8999,2.8999,2.8999,2.8999,2.8999,2.8999,2.9241,2.9402,2.9402,2.9589,2.9626,2.9439,2.9607,2.9635,2.9478,2.9487,2.8736,2.7208,2.683,2.6376,2.5816,2.5243,2.5497,0.0,0.0,3.8468,0.0,0.0,0.0,0.0,4.0252,0.0,0.0,0.0,0.0,0.0,0.0,0.0,0.0,0.0,0.0,0.0,0.0,0.0,0.0,0.0,0.0,0.0,4.6055,4.5683,4.4805,4.3281,4.2051,4.123,4.1191,4.0391,3.8652,3.8594,3.7754,3.6016,3.5922,3.5843,3.5747,3.5644,3.5566,3.5512,3.5517,3.55,3.55,3.55,3.55,3.55,3.55,3.55,3.55,3.55,3.55,3.55,3.55,3.5323,3.5066,3.4784,3.4491,3.4159,3.3883,3.3697,3.3293,3.1849,3.128,3.0858,2.9409,2.8999,2.8999,2.8999,2.8999,2.8999,2.8999,2.8999,2.8999,2.8999,2.8999,2.8999,2.8999,2.8999,2.8999,2.8999,2.8999,2.8999,2.8999,2.8999,2.8999,2.8999,2.8999,2.8999,2.8999,2.8999,2.8999,2.8999,2.9241,2.9402,2.9402,2.9589,2.9683,2.9634,2.9678,2.9769,2.9881,2.8816,2.7927,2.7285,2.5884,2.5072,2.4783,2.4821,2.4954,0.0,0.0,3.9028,3.8921,0.0,0.0,0.0,0.0,0.0,0.0,0.0,0.0,0.0,0.0,0.0,0.0,0.0,0.0,0.0,0.0,0.0,0.0,0.0,0.0,0.0,4.6308,4.5762,4.4453,4.3535,4.2519,4.1269,4.0781,3.9941,3.8633,3.8184,3.7304,3.5968,3.5852,3.5744,3.5646,3.5571,3.5528,3.55,3.55,3.55,3.55,3.55,3.55,3.55,3.55,3.55,3.55,3.55,3.55,3.549,3.5354,3.5126,3.4851,3.4561,3.4242,3.398,3.3842,3.3807,3.3568,3.2357,3.1439,3.0558,2.9335,2.8999,2.8999,2.8999,2.8999,2.8999,2.8999,2.8999,2.8999,2.8999,2.8999,2.8999,2.8999,2.8999,2.8999,2.8999,2.8999,2.8999,2.8999,2.8999,2.8999,2.8999,2.8999,2.8999,2.8999,2.8999,2.8999,2.8999,2.9241,2.9439,2.9533,2.9748,2.9849,2.9849,2.9969,2.9897,2.9551,2.8041,2.7095,2.6794,2.5511,2.4755,2.4512,2.477,2.4901,0.0,0.0,0.0,0.0,0.0,3.8892,0.0,0.0,0.0,0.0,0.0,0.0,0.0,0.0,0.0,0.0,0.0,0.0,0.0,0.0,0.0,0.0,0.0,0.0,0.0,4.6152,4.5391,4.3828,4.3535,4.2793,4.1289,4.0371,3.9492,3.8633,3.7734,3.6848,3.5902,3.575,3.5652,3.5608,3.5528,3.55,3.55,3.55,3.55,3.55,3.55,3.55,3.55,3.55,3.55,3.55,3.55,3.5479,3.541,3.5186,3.4884,3.4561,3.4281,3.4018,3.3807,3.3807,3.3697,3.3458,3.2803,3.1488,3.0063,2.9409,2.9115,2.8999,2.8999,2.8999,2.8999,2.8999,2.8999,2.8999,2.8999,2.8999,2.8999,2.8999,2.8999,2.8999,2.8999,2.8999,2.8999,2.8999,2.8999,2.8999,2.8999,2.8999,2.8999,2.8999,2.8999,2.8999,2.8999,2.9241,2.9498,2.9687,2.9893,3.0021,3.0075,3.0276,2.9926,2.8896,2.7544,2.6666,2.6301,2.5427,2.4828,2.4512,2.4845,2.4989,0.0,0.0,0.0,0.0,3.9824,0.0,0.0,0.0,0.0,0.0,0.0,0.0,0.0,0.0,0.0,0.0,0.0,0.0,0.0,0.0,0.0,0.0,0.0,0.0,0.0,0.0,4.4746,4.3769,4.2988,4.2148,4.125,4.0371,3.9492,3.8633,3.7703,3.6786,3.5901,3.5704,3.5606,3.5608,3.5528,3.55,3.55,3.55,3.55,3.55,3.55,3.55,3.55,3.55,3.55,3.55,3.55,3.5358,3.5134,3.5109,3.4731,3.4241,3.4205,3.4018,3.3807,3.3807,3.3323,3.2711,3.2619,3.1488,3.0173,3.0099,2.9543,2.8999,2.8999,2.8999,2.8999,2.8999,2.8999,2.8999,2.8999,2.8999,2.8999,2.8999,2.8999,2.8999,2.8999,2.8999,2.8999,2.8999,2.8999,2.8999,2.8999,2.8999,2.8999,2.8999,2.8999,2.8999,2.8999,2.9241,2.9498,2.9687,2.9893,3.0119,3.0333,3.0373,2.9657,2.8066,2.7854,2.7267,2.6301,2.5427,2.4828,2.4512,2.4845,2.4949,0.0,0.0,0.0,0.0,0.0,0.0,0.0,0.0,3.9396,0.0,0.0,0.0,0.0,0.0,0.0,0.0,0.0,0.0,0.0,0.0,0.0,0.0,0.0,0.0,0.0,0.0,0.0,0.0,0.0,4.2051,4.123,4.0307,3.9381,3.8504,3.7561,3.6644,3.5737,3.5645,3.5585,3.5534,3.5518,3.55,3.55,3.55,3.55,3.55,3.55,3.55,3.5493,3.5323,3.5273,3.5242,3.5096,3.507,3.507,3.4701,3.4416,3.4189,3.4018,3.3889,3.3807,3.3807,3.3568,3.3121,3.2192,3.1421,3.0705,2.9763,2.9262,2.8999,2.8999,2.8999,2.8999,2.8999,2.8999,2.8999,2.8999,2.8999,2.8999,2.8999,2.8999,2.8999,2.8999,2.8999,2.8999,2.8999,2.8999,2.8999,2.8999,2.8999,2.8999,2.8999,2.8999,2.8999,2.8999,2.9106,2.9309,2.9678,3.0022,3.0273,3.0401,2.9907,2.9102,2.7912,2.739,2.6688,2.5721,2.536,2.5041,2.479,2.4924,2.4971,4.1133,0.0,0.0,0.0,0.0,0.0,0.0,0.0,0.0,0.0,0.0,0.0,0.0,0.0,0.0,0.0,0.0,0.0,0.0,0.0,0.0,0.0,0.0,0.0,0.0,0.0,0.0,0.0,0.0,0.0,4.1189,4.0232,3.9291,3.8402,3.7462,3.6528,3.5611,3.5588,3.5549,3.55,3.55,3.55,3.55,3.55,3.55,3.55,3.55,3.5453,3.5372,3.5186,3.5066,3.4963,3.467,3.468,3.4803,3.436,3.414,3.4068,3.3875,3.3807,3.3807,3.3807,3.3807,3.3532,3.2161,3.1574,3.1115,2.9726,2.917,2.8999,2.8999,2.8999,2.8999,2.8999,2.8999,2.8999,2.8999,2.8999,2.8999,2.8999,2.8999,2.8999,2.8999,2.8999,2.8999,2.8999,2.8999,2.8999,2.8999,2.8999,2.8999,2.8999,2.8999,2.8999,2.8999,2.9061,2.9298,2.975,3.0166,3.0288,3.0041,2.9679,2.897,2.7912,2.7274,2.6522,2.5654,2.5421,2.5203,2.5007,2.5068,2.5046,0.0,0.0,0.0,3.9742,0.0,0.0,0.0,0.0,3.8507,0.0,0.0,0.0,0.0,0.0,0.0,0.0,0.0,0.0,0.0,0.0,0.0,0.0,0.0,0.0,0.0,0.0,0.0,0.0,0.0,0.0,4.1001,4.0176,3.9271,3.8323,3.7392,3.6482,3.5608,3.5537,3.5507,3.55,3.55,3.55,3.55,3.55,3.55,3.55,3.55,3.5358,3.5109,3.5105,3.4949,3.4679,3.4351,3.4217,3.4223,3.42,3.4037,3.3802,3.3795,3.3807,3.3807,3.3807,3.3807,3.3642,3.2809,3.2027,3.1225,3.0393,2.9598,2.8999,2.8999,2.8999,2.8999,2.8999,2.8999,2.8999,2.8999,2.8999,2.8999,2.8999,2.8999,2.8999,2.8999,2.8999,2.8999,2.8999,2.8999,2.8999,2.8999,2.8999,2.8999,2.8999,2.8999,2.8999,2.8999,2.9235,2.9556,2.9969,3.0251,3.0022,2.9184,2.9926,2.958,2.7931,2.7873,2.7431,2.656,2.5712,2.5203,2.4991,2.5206,2.5195,0.0,0.0,4.3047,4.1373,0.0,0.0,0.0,0.0,0.0,0.0,0.0,0.0,0.0,0.0,0.0,0.0,0.0,0.0,0.0,0.0,0.0,0.0,0.0,0.0,0.0,0.0,0.0,0.0,0.0,0.0,0.0,4.0642,3.9756,3.827,3.7846,3.6942,3.555,3.5511,3.55,3.55,3.55,3.55,3.55,3.55,3.55,3.5493,3.5308,3.519,3.5079,3.4671,3.4443,3.434,3.4043,3.3947,3.3947,3.3947,3.387,3.3807,3.3807,3.3807,3.3807,3.3807,3.3807,3.355,3.221,3.1629,3.1115,2.9782,2.9207,2.8999,2.8999,2.8999,2.8999,2.8999,2.8999,2.8999,2.8999,2.8999,2.8999,2.8999,2.8999,2.8999,2.8999,2.8999,2.8999,2.8999,2.8999,2.8999,2.8999,2.8999,2.9061,2.9241,2.9106,2.9127,2.9441,2.9664,2.9857,2.9995,3.0254,3.0269,2.9964,3.0231,2.9868,2.8723,2.8162,2.7469,2.6599,2.5587,2.5077,2.5007,2.4987,2.4971,4.3605,4.3912,0.0,4.2216,4.1793,0.0,4.0031,0.0,0.0,0.0,0.0,0.0,0.0,0.0,0.0,0.0,0.0,0.0,0.0,0.0,0.0,0.0,0.0,0.0,0.0,0.0,4.1426,4.1211,0.0,0.0,0.0,0.0,3.9975,3.8181,3.8055,3.7196,3.5519,3.55,3.55,3.55,3.55,3.55,3.55,3.55,3.55,3.547,3.4882,3.4761,3.4907,3.4105,3.3887,3.4037,3.3875,3.3807,3.3807,3.3807,3.3807,3.3807,3.3807,3.3807,3.3807,3.3807,3.3807,3.3495,3.1886,3.139,3.106,2.9445,2.8999,2.8999,2.8999,2.8999,2.8999,2.8999,2.8999,2.8999,2.8999,2.8999,2.8999,2.8999,2.8999,2.8999,2.8999,2.8999,2.8999,2.8999,2.8999,2.8999,2.8999,2.9078,2.9203,2.9387,2.9312,2.9367,2.9678,2.9746,2.9849,2.9995,3.0157,3.0305,3.0401,3.0099,2.9636,2.9016,2.7897,2.7022,2.6388,2.5409,2.4885,2.4821,2.4806,2.4954]}]]